Time,TemperatureF,DewpointF,PressureIn,WindDirection,WindDirectionDegrees,WindSpeedMPH,WindSpeedGustMPH,Humidity,HourlyPrecipIn,Conditions,Clouds,dailyrainin,SoftwareType,DateUTC
2013-01-11 00:01:00,37.2,1.9,30.50,NNW,338,0.0,0.0,22,84.64,,---,0.00,VWS V14.00,2013-01-11 05:01:00,
2013-01-11 00:04:00,37.2,1.9,30.50,NNW,338,0.0,0.0,22,84.64,,---,0.00,VWS V14.00,2013-01-11 05:04:00,
2013-01-11 00:06:00,37.2,1.9,30.50,NW,315,0.0,0.0,22,84.64,,---,0.00,VWS V14.00,2013-01-11 05:06:00,
2013-01-11 00:08:00,37.0,1.7,30.50,NW,315,0.0,2.7,22,84.64,,---,0.00,VWS V14.00,2013-01-11 05:08:00,
2013-01-11 00:10:00,37.4,1.0,30.50,NW,315,0.0,0.0,21,84.64,,---,0.00,VWS V14.00,2013-01-11 05:10:00,
2013-01-11 00:11:00,37.4,1.0,30.50,NW,315,0.0,0.0,21,84.64,,---,0.00,VWS V14.00,2013-01-11 05:11:00,
2013-01-11 00:15:00,37.2,1.9,30.50,WNW,292,0.0,0.0,22,84.64,,---,0.00,VWS V14.00,2013-01-11 05:15:00,
2013-01-11 00:16:00,37.2,1.9,30.50,WNW,292,0.0,0.0,22,84.64,,---,0.00,VWS V14.00,2013-01-11 05:16:00,
2013-01-11 00:17:00,37.2,1.9,30.50,WNW,292,0.0,0.0,22,84.64,,---,0.00,VWS V14.00,2013-01-11 05:17:00,
2013-01-11 00:20:00,37.0,1.7,30.50,WNW,292,0.0,0.0,22,84.64,,---,0.00,VWS V14.00,2013-01-11 05:20:00,
2013-01-11 00:22:00,37.2,1.9,30.47,NE,45,2.7,2.7,22,84.64,,---,0.00,VWS V14.00,2013-01-11 05:22:00,
2013-01-11 00:24:00,37.6,1.2,30.47,NE,45,3.6,3.8,21,84.64,,---,0.00,VWS V14.00,2013-01-11 05:24:00,
2013-01-11 00:25:00,37.8,1.4,30.47,NE,45,2.5,3.6,21,84.64,,---,0.00,VWS V14.00,2013-01-11 05:25:00,
2013-01-11 00:30:00,38.5,4.8,30.47,NE,45,3.1,4.0,24,84.64,,---,0.00,VWS V14.00,2013-01-11 05:30:00,
2013-01-11 00:31:00,38.8,5.2,30.47,NE,45,2.7,5.4,24,84.64,,---,0.00,VWS V14.00,2013-01-11 05:31:00,
2013-01-11 00:33:00,39.6,4.8,30.47,ENE,68,2.5,5.6,23,84.64,,---,0.00,VWS V14.00,2013-01-11 05:33:00,
2013-01-11 00:36:00,40.5,5.6,30.44,ENE,68,5.8,5.8,23,84.64,,---,0.00,VWS V14.00,2013-01-11 05:36:00,
2013-01-11 00:38:00,41.0,6.1,30.44,ESE,112,6.5,6.7,23,84.64,,---,0.00,VWS V14.00,2013-01-11 05:38:00,
2013-01-11 00:39:00,41.4,6.4,30.44,ENE,68,5.6,7.6,23,84.64,,---,0.00,VWS V14.00,2013-01-11 05:39:00,
2013-01-11 00:40:00,41.7,9.4,30.44,ENE,68,6.5,8.7,26,84.64,,---,0.00,VWS V14.00,2013-01-11 05:40:00,
2013-01-11 00:46:00,42.4,7.3,30.44,ENE,68,6.3,6.7,23,84.64,,---,0.00,VWS V14.00,2013-01-11 05:46:00,
2013-01-11 00:47:00,42.4,7.3,30.44,NE,45,8.1,8.1,23,84.64,,---,0.00,VWS V14.00,2013-01-11 05:47:00,
2013-01-11 00:48:00,42.4,7.3,30.44,NE,45,5.8,10.1,23,84.64,,---,0.00,VWS V14.00,2013-01-11 05:48:00,
2013-01-11 00:51:00,42.6,7.4,30.47,NE,45,12.1,12.1,23,84.64,,---,0.00,VWS V14.00,2013-01-11 05:51:00,
2013-01-11 00:52:00,42.8,7.6,30.47,NNE,22,5.4,12.1,23,84.64,,---,0.00,VWS V14.00,2013-01-11 05:52:00,
2013-01-11 00:53:00,42.8,7.6,30.47,NE,45,4.3,5.8,23,84.64,,---,0.00,VWS V14.00,2013-01-11 05:53:00,
2013-01-11 00:57:00,42.8,7.6,30.47,NE,45,11.0,11.0,23,84.64,,---,0.00,VWS V14.00,2013-01-11 05:57:00,
2013-01-11 00:58:00,42.8,7.6,30.47,NE,45,8.7,11.0,23,84.64,,---,0.00,VWS V14.00,2013-01-11 05:58:00,
2013-01-11 00:59:00,42.8,7.6,30.47,NE,45,7.6,9.8,23,84.64,,---,0.00,VWS V14.00,2013-01-11 05:59:00,
2013-01-11 01:04:00,43.0,7.7,30.47,NE,45,5.4,6.0,23,84.64,,---,0.00,VWS V14.00,2013-01-11 06:04:00,
2013-01-11 01:05:00,43.0,7.7,30.47,ENE,68,8.5,8.5,23,84.64,,---,0.00,VWS V14.00,2013-01-11 06:05:00,
2013-01-11 01:09:00,43.0,7.7,30.44,NNE,22,5.6,8.5,23,84.64,,---,0.00,VWS V14.00,2013-01-11 06:09:00,
2013-01-11 01:11:00,43.0,7.7,30.44,ENE,68,4.0,7.6,23,84.64,,---,0.00,VWS V14.00,2013-01-11 06:11:00,
2013-01-11 01:13:00,43.0,7.7,30.44,NE,45,6.5,6.5,23,84.64,,---,0.00,VWS V14.00,2013-01-11 06:13:00,
2013-01-11 01:15:00,43.0,7.7,30.44,NNE,22,5.6,7.8,23,84.64,,---,0.00,VWS V14.00,2013-01-11 06:15:00,
2013-01-11 01:16:00,43.0,7.7,30.44,NE,45,8.7,8.7,23,84.64,,---,0.00,VWS V14.00,2013-01-11 06:16:00,
2013-01-11 01:19:00,43.0,7.7,30.44,NNE,22,5.4,6.5,23,84.64,,---,0.00,VWS V14.00,2013-01-11 06:19:00,
2013-01-11 01:21:00,43.0,7.7,30.47,NE,45,6.3,7.8,23,84.64,,---,0.00,VWS V14.00,2013-01-11 06:21:00,
2013-01-11 01:23:00,43.0,7.7,30.47,NE,45,3.6,3.6,23,84.64,,---,0.00,VWS V14.00,2013-01-11 06:23:00,
2013-01-11 01:24:00,43.0,7.7,30.47,NE,45,5.6,8.7,23,84.64,,---,0.00,VWS V14.00,2013-01-11 06:24:00,
2013-01-11 01:25:00,43.0,7.7,30.47,NE,45,3.8,5.6,23,84.64,,---,0.00,VWS V14.00,2013-01-11 06:25:00,
2013-01-11 01:31:00,42.8,7.6,30.47,ENE,68,6.0,9.0,23,84.64,,---,0.00,VWS V14.00,2013-01-11 06:31:00,
2013-01-11 01:32:00,42.8,7.6,30.47,ENE,68,6.0,8.1,23,84.64,,---,0.00,VWS V14.00,2013-01-11 06:32:00,
2013-01-11 01:34:00,42.8,7.6,30.47,ENE,68,4.9,6.7,23,84.64,,---,0.00,VWS V14.00,2013-01-11 06:34:00,
2013-01-11 01:37:00,43.0,7.7,30.44,NE,45,5.4,8.5,23,84.64,,---,0.00,VWS V14.00,2013-01-11 06:37:00,
2013-01-11 01:39:00,43.0,7.7,30.44,ENE,68,4.7,6.0,23,84.64,,---,0.00,VWS V14.00,2013-01-11 06:39:00,
2013-01-11 01:43:00,43.0,7.7,30.44,NE,45,5.8,7.6,23,84.64,,---,0.00,VWS V14.00,2013-01-11 06:43:00,
2013-01-11 01:44:00,43.0,7.7,30.44,ENE,68,4.0,5.8,23,84.64,,---,0.00,VWS V14.00,2013-01-11 06:44:00,
2013-01-11 01:48:00,43.0,7.7,30.44,ENE,68,7.2,7.6,23,84.64,,---,0.00,VWS V14.00,2013-01-11 06:48:00,
2013-01-11 01:49:00,43.0,7.7,30.44,ENE,68,7.4,7.4,23,84.64,,---,0.00,VWS V14.00,2013-01-11 06:49:00,
2013-01-11 01:50:00,43.0,7.7,30.44,ENE,68,6.0,7.4,23,84.64,,---,0.00,VWS V14.00,2013-01-11 06:50:00,
2013-01-11 01:53:00,43.0,7.7,30.41,ENE,68,7.2,9.2,23,84.64,,---,0.00,VWS V14.00,2013-01-11 06:53:00,
2013-01-11 01:55:00,43.0,7.7,30.41,NNE,22,10.3,10.3,23,84.64,,---,0.00,VWS V14.00,2013-01-11 06:55:00,
2013-01-11 01:56:00,43.0,7.7,30.41,NE,45,5.6,10.3,23,84.64,,---,0.00,VWS V14.00,2013-01-11 06:56:00,
2013-01-11 01:59:00,43.0,7.7,30.41,NE,45,7.4,11.0,23,84.64,,---,0.00,VWS V14.00,2013-01-11 06:59:00,
2013-01-11 02:01:00,43.0,7.7,30.41,ENE,68,7.4,11.0,23,84.64,,---,0.00,VWS V14.00,2013-01-11 07:01:00,
2013-01-11 02:04:00,43.0,7.7,30.41,ENE,68,7.4,7.4,23,84.64,,---,0.00,VWS V14.00,2013-01-11 07:04:00,
2013-01-11 02:05:00,43.0,7.7,30.41,ENE,68,10.3,11.0,23,84.64,,---,0.00,VWS V14.00,2013-01-11 07:05:00,
2013-01-11 02:07:00,43.0,7.7,30.44,ENE,68,5.6,8.7,23,84.64,,---,0.00,VWS V14.00,2013-01-11 07:07:00,
2013-01-11 02:10:00,43.0,7.7,30.44,NE,45,6.5,6.5,23,84.64,,---,0.00,VWS V14.00,2013-01-11 07:10:00,
2013-01-11 02:12:00,43.0,7.7,30.44,NNE,22,7.6,9.6,23,84.64,,---,0.00,VWS V14.00,2013-01-11 07:12:00,
2013-01-11 02:13:00,43.0,7.7,30.44,ENE,68,6.3,7.6,23,84.64,,---,0.00,VWS V14.00,2013-01-11 07:13:00,
2013-01-11 02:14:00,43.0,7.7,30.44,ENE,68,3.4,6.5,23,84.64,,---,0.00,VWS V14.00,2013-01-11 07:14:00,
2013-01-11 02:15:00,43.0,7.7,30.44,ENE,68,6.3,7.4,23,84.64,,---,0.00,VWS V14.00,2013-01-11 07:15:00,
2013-01-11 02:18:00,43.0,7.7,30.44,NE,45,5.4,6.5,23,84.64,,---,0.00,VWS V14.00,2013-01-11 07:18:00,
2013-01-11 02:20:00,43.0,7.7,30.44,NE,45,3.8,6.3,23,84.64,,---,0.00,VWS V14.00,2013-01-11 07:20:00,
2013-01-11 02:21:00,43.0,7.7,30.44,ENE,68,3.1,6.5,23,84.64,,---,0.00,VWS V14.00,2013-01-11 07:21:00,
2013-01-11 02:24:00,42.8,7.6,30.44,NE,45,5.4,6.3,23,84.64,,---,0.00,VWS V14.00,2013-01-11 07:24:00,
2013-01-11 02:26:00,42.8,7.6,30.44,NNE,22,6.5,8.7,23,84.64,,---,0.00,VWS V14.00,2013-01-11 07:26:00,
2013-01-11 02:28:00,42.8,7.6,30.44,NE,45,6.9,6.9,23,84.64,,---,0.00,VWS V14.00,2013-01-11 07:28:00,
2013-01-11 02:30:00,42.8,7.6,30.44,NE,45,8.5,8.5,23,84.64,,---,0.00,VWS V14.00,2013-01-11 07:30:00,
2013-01-11 02:32:00,42.8,7.6,30.44,NE,45,4.3,8.5,23,84.64,,---,0.00,VWS V14.00,2013-01-11 07:32:00,
2013-01-11 02:36:00,42.8,7.6,30.44,ENE,68,5.8,5.8,23,84.64,,---,0.00,VWS V14.00,2013-01-11 07:36:00,
2013-01-11 02:37:00,42.8,7.6,30.44,NE,45,6.0,6.0,23,84.64,,---,0.00,VWS V14.00,2013-01-11 07:37:00,
2013-01-11 02:38:00,42.8,7.6,30.44,ENE,68,7.8,10.1,23,84.64,,---,0.00,VWS V14.00,2013-01-11 07:38:00,
2013-01-11 02:41:00,42.8,7.6,30.44,NE,45,7.6,7.6,23,84.64,,---,0.00,VWS V14.00,2013-01-11 07:41:00,
2013-01-11 02:42:00,42.8,7.6,30.44,NNE,22,5.8,7.6,23,84.64,,---,0.00,VWS V14.00,2013-01-11 07:42:00,
2013-01-11 02:45:00,42.8,7.6,30.44,NE,45,10.7,10.7,23,84.64,,---,0.00,VWS V14.00,2013-01-11 07:45:00,
2013-01-11 02:46:00,42.8,7.6,30.44,NE,45,5.8,10.7,23,84.64,,---,0.00,VWS V14.00,2013-01-11 07:46:00,
2013-01-11 02:49:00,42.8,7.6,30.44,ENE,68,6.0,9.8,23,84.64,,---,0.00,VWS V14.00,2013-01-11 07:49:00,
2013-01-11 02:51:00,42.8,7.6,30.44,East,90,6.5,8.5,23,84.64,,---,0.00,VWS V14.00,2013-01-11 07:51:00,
2013-01-11 02:52:00,42.8,7.6,30.44,ENE,68,6.5,7.6,23,84.64,,---,0.00,VWS V14.00,2013-01-11 07:52:00,
2013-01-11 02:53:00,42.8,7.6,30.44,ENE,68,4.9,8.5,23,84.64,,---,0.00,VWS V14.00,2013-01-11 07:53:00,
2013-01-11 02:56:00,42.6,7.4,30.44,ENE,68,6.0,8.5,23,84.64,,---,0.00,VWS V14.00,2013-01-11 07:56:00,
2013-01-11 02:57:00,42.6,7.4,30.44,NNE,22,6.0,6.0,23,84.64,,---,0.00,VWS V14.00,2013-01-11 07:57:00,
2013-01-11 02:59:00,42.6,7.4,30.44,ENE,68,10.7,10.7,23,84.64,,---,0.00,VWS V14.00,2013-01-11 07:59:00,
2013-01-11 03:01:00,42.6,7.4,30.44,ENE,68,7.4,8.7,23,84.64,,---,0.00,VWS V14.00,2013-01-11 08:01:00,
2013-01-11 03:06:00,42.6,7.4,30.44,ENE,68,5.8,6.0,23,84.64,,---,0.00,VWS V14.00,2013-01-11 08:06:00,
2013-01-11 03:07:00,42.6,7.4,30.44,ENE,68,6.5,8.5,23,84.64,,---,0.00,VWS V14.00,2013-01-11 08:07:00,
2013-01-11 03:08:00,42.6,7.4,30.44,NE,45,7.2,7.2,23,84.64,,---,0.00,VWS V14.00,2013-01-11 08:08:00,
2013-01-11 03:10:00,42.6,7.4,30.44,NE,45,7.8,10.1,23,84.64,,---,0.00,VWS V14.00,2013-01-11 08:10:00,
2013-01-11 03:12:00,42.6,7.4,30.44,ENE,68,4.9,7.8,23,84.64,,---,0.00,VWS V14.00,2013-01-11 08:12:00,
2013-01-11 03:14:00,42.6,7.4,30.44,ENE,68,5.6,7.6,23,84.64,,---,0.00,VWS V14.00,2013-01-11 08:14:00,
2013-01-11 03:17:00,42.4,7.3,30.44,ENE,68,3.8,6.3,23,84.64,,---,0.00,VWS V14.00,2013-01-11 08:17:00,
2013-01-11 03:18:00,42.4,7.3,30.44,ENE,68,5.8,7.4,23,84.64,,---,0.00,VWS V14.00,2013-01-11 08:18:00,
2013-01-11 03:19:00,42.4,7.3,30.44,ENE,68,5.6,6.5,23,84.64,,---,0.00,VWS V14.00,2013-01-11 08:19:00,
2013-01-11 03:21:00,42.4,7.3,30.44,NE,45,3.6,7.6,23,84.64,,---,0.00,VWS V14.00,2013-01-11 08:21:00,
2013-01-11 03:22:00,42.4,7.3,30.44,NNE,22,5.8,5.8,23,84.64,,---,0.00,VWS V14.00,2013-01-11 08:22:00,
2013-01-11 03:24:00,42.4,7.3,30.44,ENE,68,4.3,7.4,23,84.64,,---,0.00,VWS V14.00,2013-01-11 08:24:00,
2013-01-11 03:25:00,42.4,7.3,30.44,NE,45,5.8,6.0,23,84.64,,---,0.00,VWS V14.00,2013-01-11 08:25:00,
2013-01-11 03:28:00,42.3,7.1,30.44,NE,45,6.3,6.3,23,84.64,,---,0.00,VWS V14.00,2013-01-11 08:28:00,
2013-01-11 03:29:00,42.3,7.1,30.44,ENE,68,3.8,6.3,23,84.64,,---,0.00,VWS V14.00,2013-01-11 08:29:00,
2013-01-11 03:33:00,42.3,7.1,30.44,ENE,68,5.8,6.3,23,84.64,,---,0.00,VWS V14.00,2013-01-11 08:33:00,
2013-01-11 03:34:00,42.3,7.1,30.44,East,90,4.0,8.1,23,84.64,,---,0.00,VWS V14.00,2013-01-11 08:34:00,
2013-01-11 03:35:00,42.3,7.1,30.44,East,90,5.4,5.6,23,84.64,,---,0.00,VWS V14.00,2013-01-11 08:35:00,
2013-01-11 03:38:00,42.3,7.1,30.41,ENE,68,5.4,7.4,23,84.64,,---,0.00,VWS V14.00,2013-01-11 08:38:00,
2013-01-11 03:41:00,42.3,7.1,30.41,NNE,22,5.8,7.4,23,84.64,,---,0.00,VWS V14.00,2013-01-11 08:41:00,
2013-01-11 03:44:00,42.3,7.1,30.41,East,90,7.4,7.4,23,84.64,,---,0.00,VWS V14.00,2013-01-11 08:44:00,
2013-01-11 03:45:00,42.3,7.1,30.41,ENE,68,4.0,7.4,23,84.64,,---,0.00,VWS V14.00,2013-01-11 08:45:00,
2013-01-11 03:46:00,42.3,7.1,30.41,NNE,22,5.6,5.6,23,84.64,,---,0.00,VWS V14.00,2013-01-11 08:46:00,
2013-01-11 03:47:00,42.3,7.1,30.41,NE,45,3.4,5.6,23,84.64,,---,0.00,VWS V14.00,2013-01-11 08:47:00,
2013-01-11 03:49:00,42.3,7.1,30.41,ENE,68,4.0,4.3,23,84.64,,---,0.00,VWS V14.00,2013-01-11 08:49:00,
2013-01-11 03:52:00,42.3,7.1,30.41,NE,45,6.3,6.3,23,84.64,,---,0.00,VWS V14.00,2013-01-11 08:52:00,
2013-01-11 03:53:00,42.3,7.1,30.41,ENE,68,5.6,6.3,23,84.64,,---,0.00,VWS V14.00,2013-01-11 08:53:00,
2013-01-11 03:58:00,42.3,7.1,30.41,East,90,4.3,6.3,23,84.64,,---,0.00,VWS V14.00,2013-01-11 08:58:00,
2013-01-11 03:59:00,42.3,7.1,30.41,NE,45,4.0,7.8,23,84.64,,---,0.00,VWS V14.00,2013-01-11 08:59:00,
2013-01-11 04:01:00,42.3,9.8,30.41,ENE,68,6.5,6.5,26,84.64,,---,0.00,VWS V14.00,2013-01-11 09:01:00,
2013-01-11 04:05:00,42.3,9.8,30.41,ENE,68,5.4,5.4,26,84.64,,---,0.00,VWS V14.00,2013-01-11 09:05:00,
2013-01-11 04:06:00,42.3,9.8,30.41,ENE,68,4.9,6.0,26,84.64,,---,0.00,VWS V14.00,2013-01-11 09:06:00,
2013-01-11 04:09:00,42.3,9.8,30.41,ENE,68,5.4,6.0,26,84.64,,---,0.00,VWS V14.00,2013-01-11 09:09:00,
2013-01-11 04:12:00,42.3,9.8,30.41,ESE,112,1.6,4.9,26,84.64,,---,0.00,VWS V14.00,2013-01-11 09:12:00,
2013-01-11 04:14:00,42.3,9.8,30.41,ENE,68,2.5,6.5,26,84.64,,---,0.00,VWS V14.00,2013-01-11 09:14:00,
2013-01-11 04:15:00,42.3,9.8,30.41,ENE,68,3.8,6.5,26,84.64,,---,0.00,VWS V14.00,2013-01-11 09:15:00,
2013-01-11 04:16:00,42.3,9.8,30.41,East,90,4.9,4.9,26,84.64,,---,0.00,VWS V14.00,2013-01-11 09:16:00,
2013-01-11 04:17:00,42.3,9.8,30.41,NE,45,5.4,6.0,26,84.64,,---,0.00,VWS V14.00,2013-01-11 09:17:00,
2013-01-11 04:20:00,42.4,10.0,30.41,ESE,112,2.9,5.6,26,84.64,,---,0.00,VWS V14.00,2013-01-11 09:20:00,
2013-01-11 04:21:00,42.4,10.0,30.41,ENE,68,2.2,4.3,26,84.64,,---,0.00,VWS V14.00,2013-01-11 09:21:00,
2013-01-11 04:23:00,42.4,10.0,30.41,ENE,68,3.8,4.9,26,84.64,,---,0.00,VWS V14.00,2013-01-11 09:23:00,
2013-01-11 04:24:00,42.4,10.0,30.41,ENE,68,2.7,5.6,26,84.64,,---,0.00,VWS V14.00,2013-01-11 09:24:00,
2013-01-11 04:29:00,42.4,10.0,30.41,ENE,68,3.6,4.9,26,84.64,,---,0.00,VWS V14.00,2013-01-11 09:29:00,
2013-01-11 04:31:00,42.4,10.0,30.41,ENE,68,2.7,4.5,26,84.64,,---,0.00,VWS V14.00,2013-01-11 09:31:00,
2013-01-11 04:32:00,42.4,10.0,30.41,ENE,68,3.1,3.4,26,84.64,,---,0.00,VWS V14.00,2013-01-11 09:32:00,
2013-01-11 04:34:00,42.4,10.0,30.41,ENE,68,4.7,4.7,26,84.64,,---,0.00,VWS V14.00,2013-01-11 09:34:00,
2013-01-11 04:37:00,42.4,10.0,30.41,ENE,68,1.6,3.4,26,84.64,,---,0.00,VWS V14.00,2013-01-11 09:37:00,
2013-01-11 04:39:00,42.3,9.8,30.41,East,90,3.4,4.7,26,84.64,,---,0.00,VWS V14.00,2013-01-11 09:39:00,
2013-01-11 04:42:00,42.3,9.8,30.41,ENE,68,4.9,4.9,26,84.64,,---,0.00,VWS V14.00,2013-01-11 09:42:00,
2013-01-11 04:43:00,42.3,9.8,30.41,ENE,68,2.5,4.9,26,84.64,,---,0.00,VWS V14.00,2013-01-11 09:43:00,
2013-01-11 04:47:00,42.3,9.8,30.41,ENE,68,3.8,4.3,26,84.64,,---,0.00,VWS V14.00,2013-01-11 09:47:00,
2013-01-11 04:48:00,42.3,9.8,30.41,ENE,68,2.9,4.0,26,84.64,,---,0.00,VWS V14.00,2013-01-11 09:48:00,
2013-01-11 04:51:00,42.3,9.8,30.41,ENE,68,2.9,4.7,26,84.64,,---,0.00,VWS V14.00,2013-01-11 09:51:00,
2013-01-11 04:53:00,42.3,9.8,30.41,East,90,2.5,3.1,26,84.64,,---,0.00,VWS V14.00,2013-01-11 09:53:00,
2013-01-11 04:54:00,42.3,9.8,30.41,East,90,4.0,4.0,26,84.64,,---,0.00,VWS V14.00,2013-01-11 09:54:00,
2013-01-11 04:55:00,42.3,9.8,30.41,ENE,68,2.9,4.0,26,84.64,,---,0.00,VWS V14.00,2013-01-11 09:55:00,
2013-01-11 05:00:00,42.3,9.8,30.41,East,90,2.7,2.9,26,84.64,,---,0.00,VWS V14.00,2013-01-11 10:00:00,
2013-01-11 05:01:00,42.3,9.8,30.41,ESE,112,3.4,3.8,26,84.64,,---,0.00,VWS V14.00,2013-01-11 10:01:00,
2013-01-11 05:04:00,42.3,9.8,30.41,ESE,112,1.3,4.0,26,84.64,,---,0.00,VWS V14.00,2013-01-11 10:04:00,
2013-01-11 05:05:00,42.4,10.0,30.41,ESE,112,4.0,4.0,26,84.64,,---,0.00,VWS V14.00,2013-01-11 10:05:00,
2013-01-11 05:06:00,42.4,10.0,30.41,ESE,112,2.0,4.0,26,84.64,,---,0.00,VWS V14.00,2013-01-11 10:06:00,
2013-01-11 05:09:00,42.4,10.0,30.41,ESE,112,4.3,4.3,26,84.64,,---,0.00,VWS V14.00,2013-01-11 10:09:00,
2013-01-11 05:11:00,42.4,10.0,30.41,ENE,68,1.6,5.4,26,84.64,,---,0.00,VWS V14.00,2013-01-11 10:11:00,
2013-01-11 05:16:00,42.3,9.8,30.41,ESE,112,1.6,2.9,26,84.64,,---,0.00,VWS V14.00,2013-01-11 10:16:00,
2013-01-11 05:17:00,42.3,9.8,30.41,ESE,112,1.6,2.9,26,84.64,,---,0.00,VWS V14.00,2013-01-11 10:17:00,
2013-01-11 05:18:00,42.3,9.8,30.41,ESE,112,0.0,1.6,26,84.64,,---,0.00,VWS V14.00,2013-01-11 10:18:00,
2013-01-11 05:22:00,42.3,9.8,30.41,ESE,112,0.0,2.5,26,84.64,,---,0.00,VWS V14.00,2013-01-11 10:22:00,
2013-01-11 05:23:00,42.3,9.8,30.41,ESE,112,0.0,0.0,26,84.64,,---,0.00,VWS V14.00,2013-01-11 10:23:00,
2013-01-11 05:26:00,42.1,9.7,30.41,ESE,112,0.0,0.0,26,84.64,,---,0.00,VWS V14.00,2013-01-11 10:26:00,
2013-01-11 05:27:00,42.3,9.8,30.41,ESE,112,0.0,0.0,26,84.64,,---,0.00,VWS V14.00,2013-01-11 10:27:00,
2013-01-11 05:29:00,42.1,9.7,30.41,ESE,112,2.5,3.8,26,84.64,,---,0.00,VWS V14.00,2013-01-11 10:29:00,
2013-01-11 05:31:00,42.3,9.8,30.41,ESE,112,0.0,2.7,26,84.64,,---,0.00,VWS V14.00,2013-01-11 10:31:00,
2013-01-11 05:32:00,42.3,9.8,30.41,ESE,112,0.0,0.0,26,84.64,,---,0.00,VWS V14.00,2013-01-11 10:32:00,
2013-01-11 05:33:00,42.1,9.7,30.41,ESE,112,0.0,0.0,26,84.64,,---,0.00,VWS V14.00,2013-01-11 10:33:00,
2013-01-11 05:34:00,42.1,9.7,30.41,ESE,112,0.0,0.0,26,84.64,,---,0.00,VWS V14.00,2013-01-11 10:34:00,
2013-01-11 05:37:00,42.3,11.5,30.41,ESE,112,0.0,0.0,28,84.64,,---,0.00,VWS V14.00,2013-01-11 10:37:00,
2013-01-11 05:38:00,42.1,11.3,30.41,ESE,112,0.0,0.0,28,84.64,,---,0.00,VWS V14.00,2013-01-11 10:38:00,
2013-01-11 05:39:00,42.3,11.5,30.41,ESE,112,0.0,0.0,28,84.64,,---,0.00,VWS V14.00,2013-01-11 10:39:00,
2013-01-11 05:41:00,42.1,11.3,30.41,ESE,112,0.0,0.0,28,84.64,,---,0.00,VWS V14.00,2013-01-11 10:41:00,
2013-01-11 05:44:00,42.3,11.5,30.41,SE,135,0.0,0.0,28,84.64,,---,0.00,VWS V14.00,2013-01-11 10:44:00,
2013-01-11 05:48:00,42.3,11.5,30.41,SE,135,0.0,0.0,28,84.64,,---,0.00,VWS V14.00,2013-01-11 10:48:00,
2013-01-11 05:51:00,42.1,11.3,30.41,SE,135,0.0,0.0,28,84.64,,---,0.00,VWS V14.00,2013-01-11 10:51:00,
2013-01-11 05:52:00,42.1,11.3,30.41,SE,135,2.9,2.9,28,84.64,,---,0.00,VWS V14.00,2013-01-11 10:52:00,
2013-01-11 05:56:00,42.3,11.5,30.41,ESE,112,0.0,0.0,28,84.64,,---,0.00,VWS V14.00,2013-01-11 10:56:00,
2013-01-11 05:58:00,42.4,11.7,30.41,ESE,112,0.0,0.0,28,84.64,,---,0.00,VWS V14.00,2013-01-11 10:58:00,
2013-01-11 06:00:00,42.4,11.7,30.41,ESE,112,0.0,0.0,28,84.64,,---,0.00,VWS V14.00,2013-01-11 11:00:00,
2013-01-11 06:02:00,42.4,11.7,30.41,ESE,112,0.0,0.0,28,84.64,,---,0.00,VWS V14.00,2013-01-11 11:02:00,
2013-01-11 06:05:00,42.3,11.5,30.41,ESE,112,0.0,0.0,28,84.64,,---,0.00,VWS V14.00,2013-01-11 11:05:00,
2013-01-11 06:06:00,42.4,11.7,30.44,ESE,112,0.0,0.0,28,84.64,,---,0.00,VWS V14.00,2013-01-11 11:06:00,
2013-01-11 06:09:00,42.3,11.5,30.44,ESE,112,0.0,0.0,28,84.64,,---,0.00,VWS V14.00,2013-01-11 11:09:00,
2013-01-11 06:11:00,42.3,11.5,30.44,ESE,112,0.0,0.0,28,84.64,,---,0.00,VWS V14.00,2013-01-11 11:11:00,
2013-01-11 06:12:00,42.3,11.5,30.44,ESE,112,0.0,0.0,28,84.64,,---,0.00,VWS V14.00,2013-01-11 11:12:00,
2013-01-11 06:15:00,42.3,11.5,30.44,ESE,112,0.0,0.0,28,84.64,,---,0.00,VWS V14.00,2013-01-11 11:15:00,
2013-01-11 06:16:00,42.3,11.5,30.44,ESE,112,0.0,0.0,28,84.64,,---,0.00,VWS V14.00,2013-01-11 11:16:00,
2013-01-11 06:17:00,42.3,11.5,30.44,ESE,112,0.0,0.0,28,84.64,,---,0.00,VWS V14.00,2013-01-11 11:17:00,
2013-01-11 06:21:00,42.4,11.7,30.44,ESE,112,0.0,0.0,28,84.64,,---,0.00,VWS V14.00,2013-01-11 11:21:00,
2013-01-11 06:22:00,42.4,11.7,30.44,ESE,112,0.0,0.0,28,84.64,,---,0.00,VWS V14.00,2013-01-11 11:22:00,
2013-01-11 06:23:00,42.4,11.7,30.44,ESE,112,0.0,0.0,28,84.64,,---,0.00,VWS V14.00,2013-01-11 11:23:00,
2013-01-11 06:26:00,42.3,11.5,30.44,ESE,112,0.0,0.0,28,84.64,,---,0.00,VWS V14.00,2013-01-11 11:26:00,
2013-01-11 06:29:00,42.3,11.5,30.44,ESE,112,0.0,0.0,28,84.64,,---,0.00,VWS V14.00,2013-01-11 11:29:00,
2013-01-11 06:30:00,42.3,11.5,30.44,ESE,112,0.0,0.0,28,84.64,,---,0.00,VWS V14.00,2013-01-11 11:30:00,
2013-01-11 06:32:00,42.4,11.7,30.44,ESE,112,0.0,0.0,28,84.64,,---,0.00,VWS V14.00,2013-01-11 11:32:00,
2013-01-11 06:37:00,42.4,11.7,30.44,ESE,112,2.7,2.9,28,84.64,,---,0.00,VWS V14.00,2013-01-11 11:37:00,
2013-01-11 06:39:00,42.6,11.8,30.44,ESE,112,2.0,2.9,28,84.64,,---,0.00,VWS V14.00,2013-01-11 11:39:00,
2013-01-11 06:40:00,42.6,11.8,30.44,ESE,112,1.6,2.9,28,84.64,,---,0.00,VWS V14.00,2013-01-11 11:40:00,
2013-01-11 06:41:00,42.6,11.8,30.44,ESE,112,4.3,4.3,28,84.64,,---,0.00,VWS V14.00,2013-01-11 11:41:00,
2013-01-11 06:46:00,43.0,12.1,30.44,ESE,112,2.5,4.3,28,84.64,,---,0.00,VWS V14.00,2013-01-11 11:46:00,
2013-01-11 06:47:00,43.0,12.1,30.44,ESE,112,2.9,3.4,28,84.64,,---,0.00,VWS V14.00,2013-01-11 11:47:00,
2013-01-11 06:48:00,43.0,12.1,30.44,ESE,112,3.8,3.8,28,84.64,,---,0.00,VWS V14.00,2013-01-11 11:48:00,
2013-01-11 06:51:00,43.2,12.3,30.44,SSE,158,6.0,6.0,28,84.64,,---,0.00,VWS V14.00,2013-01-11 11:51:00,
2013-01-11 06:54:00,43.3,12.4,30.44,ESE,112,4.3,4.9,28,84.64,,---,0.00,VWS V14.00,2013-01-11 11:54:00,
2013-01-11 06:55:00,43.3,12.4,30.44,ESE,112,5.4,5.6,28,84.64,,---,0.00,VWS V14.00,2013-01-11 11:55:00,
2013-01-11 06:57:00,43.3,12.4,30.44,SE,135,2.9,3.6,28,84.64,,---,0.00,VWS V14.00,2013-01-11 11:57:00,
2013-01-11 06:59:00,43.5,12.6,30.44,ESE,112,2.9,6.3,28,84.64,,---,0.00,VWS V14.00,2013-01-11 11:59:00,
2013-01-11 07:02:00,43.5,12.6,30.44,ESE,112,5.6,5.8,28,84.64,,---,0.00,VWS V14.00,2013-01-11 12:02:00,
2013-01-11 07:03:00,43.5,12.6,30.44,East,90,2.0,5.6,28,84.64,,---,0.00,VWS V14.00,2013-01-11 12:03:00,
2013-01-11 07:04:00,43.5,12.6,30.44,ESE,112,3.8,3.8,28,84.64,,---,0.00,VWS V14.00,2013-01-11 12:04:00,
2013-01-11 07:07:00,43.5,12.6,30.41,ESE,112,2.0,6.3,28,84.64,,---,0.00,VWS V14.00,2013-01-11 12:07:00,
2013-01-11 07:08:00,43.5,12.6,30.41,East,90,6.3,6.3,28,84.64,,---,0.00,VWS V14.00,2013-01-11 12:08:00,
2013-01-11 07:09:00,43.5,12.6,30.41,ESE,112,2.5,6.3,28,84.64,,---,0.00,VWS V14.00,2013-01-11 12:09:00,
2013-01-11 07:13:00,43.7,12.8,30.41,ESE,112,4.0,4.9,28,84.64,,---,0.00,VWS V14.00,2013-01-11 12:13:00,
2013-01-11 07:15:00,43.7,12.8,30.41,ESE,112,3.6,5.6,28,84.64,,---,0.00,VWS V14.00,2013-01-11 12:15:00,
2013-01-11 07:18:00,43.7,12.8,30.41,ESE,112,2.9,3.6,28,84.64,,---,0.00,VWS V14.00,2013-01-11 12:18:00,
2013-01-11 07:20:00,43.7,12.8,30.41,ESE,112,2.9,3.8,28,84.64,,---,0.00,VWS V14.00,2013-01-11 12:20:00,
2013-01-11 07:23:00,43.7,12.8,30.44,ESE,112,0.0,0.0,28,84.64,,---,0.00,VWS V14.00,2013-01-11 12:23:00,
2013-01-11 07:24:00,43.7,12.8,30.44,ESE,112,0.0,0.0,28,84.64,,---,0.00,VWS V14.00,2013-01-11 12:24:00,
2013-01-11 07:27:00,43.5,12.6,30.44,ESE,112,0.0,0.0,28,84.64,,---,0.00,VWS V14.00,2013-01-11 12:27:00,
2013-01-11 07:28:00,43.5,12.6,30.44,ESE,112,0.0,0.0,28,84.64,,---,0.00,VWS V14.00,2013-01-11 12:28:00,
2013-01-11 07:31:00,43.5,12.6,30.44,ESE,112,0.0,0.0,28,84.64,,---,0.00,VWS V14.00,2013-01-11 12:31:00,
2013-01-11 07:32:00,43.5,12.6,30.44,ESE,112,0.0,0.0,28,84.64,,---,0.00,VWS V14.00,2013-01-11 12:32:00,
2013-01-11 07:35:00,43.5,12.6,30.44,East,90,0.0,0.0,28,84.64,,---,0.00,VWS V14.00,2013-01-11 12:35:00,
2013-01-11 07:39:00,43.7,12.8,30.44,ESE,112,0.0,0.0,28,84.64,,---,0.00,VWS V14.00,2013-01-11 12:39:00,
2013-01-11 07:40:00,43.7,12.8,30.44,ESE,112,0.0,0.0,28,84.64,,---,0.00,VWS V14.00,2013-01-11 12:40:00,
2013-01-11 07:42:00,43.7,12.8,30.44,ESE,112,0.0,0.0,28,84.64,,---,0.00,VWS V14.00,2013-01-11 12:42:00,
2013-01-11 07:47:00,43.7,12.8,30.44,ESE,112,4.0,4.0,28,84.64,,---,0.00,VWS V14.00,2013-01-11 12:47:00,
2013-01-11 07:49:00,43.7,12.8,30.44,ESE,112,2.0,2.5,28,84.64,,---,0.00,VWS V14.00,2013-01-11 12:49:00,
2013-01-11 07:50:00,43.7,12.8,30.44,ESE,112,2.5,2.7,28,84.64,,---,0.00,VWS V14.00,2013-01-11 12:50:00,
2013-01-11 07:51:00,43.7,12.8,30.44,ESE,112,0.0,2.5,28,84.64,,---,0.00,VWS V14.00,2013-01-11 12:51:00,
2013-01-11 07:56:00,43.7,12.8,30.44,ESE,112,3.1,3.1,28,84.64,,---,0.00,VWS V14.00,2013-01-11 12:56:00,
2013-01-11 07:59:00,43.9,12.9,30.44,ESE,112,2.5,2.9,28,84.64,,---,0.00,VWS V14.00,2013-01-11 12:59:00,
2013-01-11 08:01:00,43.9,12.9,30.44,ESE,112,2.7,3.1,28,84.64,,---,0.00,VWS V14.00,2013-01-11 13:01:00,
2013-01-11 08:04:00,44.1,13.1,30.44,ESE,112,3.8,3.8,28,84.64,,---,0.00,VWS V14.00,2013-01-11 13:04:00,
2013-01-11 08:06:00,43.9,12.9,30.44,ESE,112,0.0,2.5,28,84.64,,---,0.00,VWS V14.00,2013-01-11 13:06:00,
2013-01-11 08:09:00,44.1,13.1,30.44,ESE,112,2.7,3.4,28,84.64,,---,0.00,VWS V14.00,2013-01-11 13:09:00,
2013-01-11 08:11:00,44.1,13.1,30.44,East,90,3.1,4.0,28,84.64,,---,0.00,VWS V14.00,2013-01-11 13:11:00,
2013-01-11 08:12:00,44.1,13.1,30.44,East,90,2.5,3.8,28,84.64,,---,0.00,VWS V14.00,2013-01-11 13:12:00,
2013-01-11 08:14:00,44.1,13.1,30.44,ESE,112,2.5,4.0,28,84.64,,---,0.00,VWS V14.00,2013-01-11 13:14:00,
2013-01-11 08:15:00,44.1,13.1,30.44,ESE,112,2.0,3.1,28,84.64,,---,0.00,VWS V14.00,2013-01-11 13:15:00,
2013-01-11 08:17:00,44.1,13.1,30.44,ESE,112,2.9,3.8,28,84.64,,---,0.00,VWS V14.00,2013-01-11 13:17:00,
2013-01-11 08:19:00,44.1,13.1,30.44,ESE,112,3.4,4.9,28,84.64,,---,0.00,VWS V14.00,2013-01-11 13:19:00,
2013-01-11 08:20:00,44.1,13.1,30.44,ESE,112,3.4,3.6,28,84.64,,---,0.00,VWS V14.00,2013-01-11 13:20:00,
2013-01-11 08:23:00,44.1,13.9,30.41,ESE,112,1.6,3.6,29,84.64,,---,0.00,VWS V14.00,2013-01-11 13:23:00,
2013-01-11 08:27:00,44.2,14.0,30.41,ESE,112,4.9,4.9,29,84.64,,---,0.00,VWS V14.00,2013-01-11 13:27:00,
2013-01-11 08:28:00,44.2,14.0,30.41,ESE,112,3.4,5.4,29,84.64,,---,0.00,VWS V14.00,2013-01-11 13:28:00,
2013-01-11 08:29:00,44.2,14.0,30.41,East,90,2.9,3.6,29,84.64,,---,0.00,VWS V14.00,2013-01-11 13:29:00,
2013-01-11 08:33:00,44.4,14.2,30.41,East,90,4.0,4.7,29,84.64,,---,0.00,VWS V14.00,2013-01-11 13:33:00,
2013-01-11 08:34:00,44.4,14.2,30.41,SSE,158,2.0,4.9,29,84.64,,---,0.00,VWS V14.00,2013-01-11 13:34:00,
2013-01-11 08:39:00,44.6,13.5,30.41,East,90,3.1,4.7,28,84.64,,---,0.00,VWS V14.00,2013-01-11 13:39:00,
2013-01-11 08:40:00,44.6,13.5,30.41,ESE,112,2.5,3.1,28,84.64,,---,0.00,VWS V14.00,2013-01-11 13:40:00,
2013-01-11 08:41:00,44.8,13.7,30.41,East,90,4.0,4.0,28,84.64,,---,0.00,VWS V14.00,2013-01-11 13:41:00,
2013-01-11 08:43:00,44.8,13.7,30.41,East,90,1.1,4.3,28,84.64,,---,0.00,VWS V14.00,2013-01-11 13:43:00,
2013-01-11 08:48:00,44.8,13.7,30.41,ESE,112,4.9,4.9,28,84.64,,---,0.00,VWS V14.00,2013-01-11 13:48:00,
2013-01-11 08:49:00,44.8,13.7,30.41,ESE,112,5.6,5.6,28,84.64,,---,0.00,VWS V14.00,2013-01-11 13:49:00,
2013-01-11 08:50:00,45.0,13.8,30.41,SE,135,5.4,6.0,28,84.64,,---,0.00,VWS V14.00,2013-01-11 13:50:00,
2013-01-11 08:52:00,45.0,13.8,30.41,SE,135,4.0,4.5,28,84.64,,---,0.00,VWS V14.00,2013-01-11 13:52:00,
2013-01-11 08:54:00,45.0,13.8,30.41,ESE,112,3.1,4.9,28,84.64,,---,0.00,VWS V14.00,2013-01-11 13:54:00,
2013-01-11 08:56:00,45.0,13.8,30.41,ESE,112,2.2,2.5,28,84.64,,---,0.00,VWS V14.00,2013-01-11 13:56:00,
2013-01-11 08:57:00,45.1,14.0,30.41,ESE,112,2.7,3.6,28,84.64,,---,0.00,VWS V14.00,2013-01-11 13:57:00,
2013-01-11 09:02:00,45.1,14.0,30.41,ESE,112,3.6,4.7,28,84.64,,---,0.00,VWS V14.00,2013-01-11 14:02:00,
2013-01-11 09:03:00,45.3,14.1,30.41,ENE,68,4.3,4.3,28,84.64,,---,0.00,VWS V14.00,2013-01-11 14:03:00,
2013-01-11 09:04:00,45.3,14.1,30.41,ESE,112,4.3,4.3,28,84.64,,---,0.00,VWS V14.00,2013-01-11 14:04:00,
2013-01-11 09:07:00,45.5,14.3,30.44,East,90,2.5,3.1,28,84.64,,---,0.00,VWS V14.00,2013-01-11 14:07:00,
2013-01-11 09:08:00,45.5,14.3,30.44,East,90,4.0,4.0,28,84.64,,---,0.00,VWS V14.00,2013-01-11 14:08:00,
2013-01-11 09:11:00,45.5,14.3,30.44,ESE,112,3.4,4.7,28,84.64,,---,0.00,VWS V14.00,2013-01-11 14:11:00,
2013-01-11 09:14:00,45.7,14.5,30.44,ENE,68,3.6,3.8,28,84.64,,---,0.00,VWS V14.00,2013-01-11 14:14:00,
2013-01-11 09:15:00,45.9,14.6,30.44,ESE,112,3.4,4.3,28,84.64,,---,0.00,VWS V14.00,2013-01-11 14:15:00,
2013-01-11 09:20:00,45.9,14.6,30.44,East,90,3.8,4.3,28,84.64,,---,0.00,VWS V14.00,2013-01-11 14:20:00,
2013-01-11 09:21:00,45.9,14.6,30.41,ESE,112,3.1,4.3,28,84.64,,---,0.00,VWS V14.00,2013-01-11 14:21:00,
2013-01-11 09:23:00,46.0,14.8,30.41,ENE,68,2.2,4.7,28,84.64,,---,0.00,VWS V14.00,2013-01-11 14:23:00,
2013-01-11 09:25:00,46.0,14.8,30.41,ENE,68,2.5,2.5,28,84.64,,---,0.00,VWS V14.00,2013-01-11 14:25:00,
2013-01-11 09:28:00,46.2,14.9,30.41,ENE,68,2.7,2.7,28,84.64,,---,0.00,VWS V14.00,2013-01-11 14:28:00,
2013-01-11 09:29:00,46.2,14.9,30.41,ENE,68,2.0,2.9,28,84.64,,---,0.00,VWS V14.00,2013-01-11 14:29:00,
2013-01-11 09:32:00,46.2,14.9,30.41,ENE,68,4.7,4.7,28,84.64,,---,0.00,VWS V14.00,2013-01-11 14:32:00,
2013-01-11 09:33:00,46.2,14.9,30.41,ESE,112,3.4,5.6,28,84.64,,---,0.00,VWS V14.00,2013-01-11 14:33:00,
2013-01-11 09:36:00,46.2,14.9,30.41,ESE,112,2.0,4.0,28,84.64,,---,0.00,VWS V14.00,2013-01-11 14:36:00,
2013-01-11 09:38:00,46.2,14.9,30.41,ENE,68,3.4,3.4,28,84.64,,---,0.00,VWS V14.00,2013-01-11 14:38:00,
2013-01-11 09:41:00,46.2,14.9,30.41,ENE,68,2.0,2.5,28,84.64,,---,0.00,VWS V14.00,2013-01-11 14:41:00,
2013-01-11 09:42:00,46.2,14.9,30.41,ESE,112,2.9,3.1,28,84.64,,---,0.00,VWS V14.00,2013-01-11 14:42:00,
2013-01-11 09:45:00,46.4,15.1,30.41,ESE,112,2.7,2.7,28,84.64,,---,0.00,VWS V14.00,2013-01-11 14:45:00,
2013-01-11 09:49:00,46.4,15.1,30.41,ESE,112,2.2,3.6,28,84.64,,---,0.00,VWS V14.00,2013-01-11 14:49:00,
2013-01-11 09:50:00,46.4,15.1,30.41,East,90,2.0,2.9,28,84.64,,---,0.00,VWS V14.00,2013-01-11 14:50:00,
2013-01-11 09:56:00,46.6,15.2,30.41,ESE,112,2.9,5.6,28,84.64,,---,0.00,VWS V14.00,2013-01-11 14:56:00,
2013-01-11 09:57:00,46.6,15.2,30.41,ESE,112,4.0,5.4,28,84.64,,---,0.00,VWS V14.00,2013-01-11 14:57:00,
2013-01-11 09:59:00,46.6,15.2,30.41,ESE,112,2.9,4.9,28,84.64,,---,0.00,VWS V14.00,2013-01-11 14:59:00,
2013-01-11 10:00:00,46.6,15.2,30.41,ESE,112,3.1,3.1,28,84.64,,---,0.00,VWS V14.00,2013-01-11 15:00:00,
2013-01-11 10:03:00,46.6,15.2,30.41,ESE,112,4.7,7.2,28,84.64,,---,0.00,VWS V14.00,2013-01-11 15:03:00,
2013-01-11 10:06:00,46.6,15.2,30.41,ESE,112,3.6,3.8,28,84.64,,---,0.00,VWS V14.00,2013-01-11 15:06:00,
2013-01-11 10:08:00,46.6,15.2,30.41,ESE,112,2.0,3.6,28,84.64,,---,0.00,VWS V14.00,2013-01-11 15:08:00,
2013-01-11 10:10:00,46.8,15.4,30.41,ESE,112,0.0,1.3,28,84.64,,---,0.00,VWS V14.00,2013-01-11 15:10:00,
2013-01-11 10:12:00,46.8,15.4,30.41,ESE,112,1.6,1.6,28,84.64,,---,0.00,VWS V14.00,2013-01-11 15:12:00,
2013-01-11 10:15:00,46.8,15.4,30.41,ENE,68,1.3,4.0,28,84.64,,---,0.00,VWS V14.00,2013-01-11 15:15:00,
2013-01-11 10:16:00,46.8,15.4,30.41,East,90,3.1,3.6,28,84.64,,---,0.00,VWS V14.00,2013-01-11 15:16:00,
2013-01-11 10:18:00,46.8,15.4,30.41,ESE,112,2.5,3.8,28,84.64,,---,0.00,VWS V14.00,2013-01-11 15:18:00,
2013-01-11 10:22:00,46.8,15.4,30.41,East,90,3.4,3.4,28,84.64,,---,0.00,VWS V14.00,2013-01-11 15:22:00,
2013-01-11 10:23:00,46.8,15.4,30.41,ESE,112,3.1,3.4,28,84.64,,---,0.00,VWS V14.00,2013-01-11 15:23:00,
2013-01-11 10:24:00,46.8,15.4,30.41,ENE,68,2.5,3.1,28,84.64,,---,0.00,VWS V14.00,2013-01-11 15:24:00,
2013-01-11 10:26:00,46.8,15.4,30.41,ESE,112,1.6,3.6,28,84.64,,---,0.00,VWS V14.00,2013-01-11 15:26:00,
2013-01-11 10:28:00,46.8,15.4,30.41,ESE,112,2.9,3.1,28,84.64,,---,0.00,VWS V14.00,2013-01-11 15:28:00,
2013-01-11 10:29:00,46.8,15.4,30.41,ESE,112,2.7,2.9,28,84.64,,---,0.00,VWS V14.00,2013-01-11 15:29:00,
2013-01-11 10:31:00,46.9,15.6,30.41,ESE,112,6.0,6.0,28,84.64,,---,0.00,VWS V14.00,2013-01-11 15:31:00,
2013-01-11 10:34:00,47.1,15.7,30.41,ESE,112,3.6,4.3,28,84.64,,---,0.00,VWS V14.00,2013-01-11 15:34:00,
2013-01-11 10:36:00,47.3,15.9,30.39,SE,135,4.0,4.0,28,84.64,,---,0.00,VWS V14.00,2013-01-11 15:36:00,
2013-01-11 10:40:00,47.3,15.0,30.39,ESE,112,3.4,4.9,27,84.64,,---,0.00,VWS V14.00,2013-01-11 15:40:00,
2013-01-11 10:41:00,47.5,15.2,30.39,SE,135,4.0,4.3,27,84.64,,---,0.00,VWS V14.00,2013-01-11 15:41:00,
2013-01-11 10:42:00,47.5,15.2,30.39,ESE,112,5.6,5.6,27,84.64,,---,0.00,VWS V14.00,2013-01-11 15:42:00,
2013-01-11 10:48:00,47.7,15.3,30.39,ESE,112,2.7,6.0,27,84.64,,---,0.00,VWS V14.00,2013-01-11 15:48:00,
2013-01-11 10:49:00,47.8,15.5,30.39,SE,135,3.6,4.9,27,84.64,,---,0.00,VWS V14.00,2013-01-11 15:49:00,
2013-01-11 10:51:00,47.8,15.5,30.36,ESE,112,4.9,5.6,27,84.64,,---,0.00,VWS V14.00,2013-01-11 15:51:00,
2013-01-11 10:54:00,48.0,15.6,30.36,ESE,112,4.0,4.0,27,84.64,,---,0.00,VWS V14.00,2013-01-11 15:54:00,
2013-01-11 10:56:00,48.0,15.6,30.36,ESE,112,4.7,5.8,27,84.64,,---,0.00,VWS V14.00,2013-01-11 15:56:00,
2013-01-11 10:59:00,48.2,14.9,30.36,SE,135,5.4,5.4,26,84.64,,---,0.00,VWS V14.00,2013-01-11 15:59:00,
2013-01-11 11:01:00,48.2,14.9,30.36,ESE,112,6.3,6.3,26,84.64,,---,0.00,VWS V14.00,2013-01-11 16:01:00,
2013-01-11 11:02:00,48.2,14.9,30.36,ESE,112,7.4,7.4,26,84.64,,---,0.00,VWS V14.00,2013-01-11 16:02:00,
2013-01-11 11:06:00,48.0,15.6,30.39,ESE,112,5.6,6.5,27,84.64,,---,0.00,VWS V14.00,2013-01-11 16:06:00,
2013-01-11 11:08:00,48.0,15.6,30.39,ESE,112,8.7,8.7,27,84.64,,---,0.00,VWS V14.00,2013-01-11 16:08:00,
2013-01-11 11:09:00,48.0,15.6,30.39,SE,135,5.4,10.1,27,84.64,,---,0.00,VWS V14.00,2013-01-11 16:09:00,
2013-01-11 11:11:00,48.0,15.6,30.39,ESE,112,7.6,7.6,27,84.64,,---,0.00,VWS V14.00,2013-01-11 16:11:00,
2013-01-11 11:13:00,48.0,15.6,30.39,ESE,112,6.0,10.1,27,84.64,,---,0.00,VWS V14.00,2013-01-11 16:13:00,
2013-01-11 11:14:00,48.0,15.6,30.39,ESE,112,4.7,7.4,27,84.64,,---,0.00,VWS V14.00,2013-01-11 16:14:00,
2013-01-11 11:18:00,48.0,15.6,30.39,ENE,68,6.5,10.3,27,84.64,,---,0.00,VWS V14.00,2013-01-11 16:18:00,
2013-01-11 11:20:00,47.8,15.5,30.39,ESE,112,6.0,8.5,27,84.64,,---,0.00,VWS V14.00,2013-01-11 16:20:00,
2013-01-11 11:21:00,47.8,15.5,30.33,ESE,112,6.3,6.5,27,84.64,,---,0.00,VWS V14.00,2013-01-11 16:21:00,
2013-01-11 11:23:00,48.0,15.6,30.33,East,90,6.5,6.5,27,84.64,,---,0.00,VWS V14.00,2013-01-11 16:23:00,
2013-01-11 11:27:00,48.2,15.8,30.33,SE,135,4.9,4.9,27,84.64,,---,0.00,VWS V14.00,2013-01-11 16:27:00,
2013-01-11 11:29:00,48.4,16.0,30.33,SE,135,4.3,5.8,27,84.64,,---,0.00,VWS V14.00,2013-01-11 16:29:00,
2013-01-11 11:32:00,48.6,16.1,30.33,ESE,112,5.6,7.2,27,84.64,,---,0.00,VWS V14.00,2013-01-11 16:32:00,
2013-01-11 11:34:00,48.6,16.1,30.33,SE,135,2.7,3.8,27,84.64,,---,0.00,VWS V14.00,2013-01-11 16:34:00,
2013-01-11 11:35:00,48.6,16.1,30.33,East,90,3.4,5.4,27,84.64,,---,0.00,VWS V14.00,2013-01-11 16:35:00,
2013-01-11 11:36:00,48.6,16.1,30.33,ESE,112,3.6,3.6,27,84.64,,---,0.00,VWS V14.00,2013-01-11 16:36:00,
2013-01-11 11:40:00,48.2,15.8,30.33,ESE,112,6.3,7.4,27,84.64,,---,0.00,VWS V14.00,2013-01-11 16:40:00,
2013-01-11 11:41:00,48.2,15.8,30.33,SE,135,4.3,6.3,27,84.64,,---,0.00,VWS V14.00,2013-01-11 16:41:00,
2013-01-11 11:42:00,48.2,15.8,30.33,SSE,158,4.3,4.9,27,84.64,,---,0.00,VWS V14.00,2013-01-11 16:42:00,
2013-01-11 11:47:00,48.4,16.0,30.33,ESE,112,2.7,5.8,27,84.64,,---,0.00,VWS V14.00,2013-01-11 16:47:00,
2013-01-11 11:48:00,48.4,16.0,30.33,East,90,4.0,4.7,27,84.64,,---,0.00,VWS V14.00,2013-01-11 16:48:00,
2013-01-11 11:49:00,48.4,16.0,30.33,SSE,158,2.9,5.6,27,84.64,,---,0.00,VWS V14.00,2013-01-11 16:49:00,
2013-01-11 11:53:00,48.6,16.1,30.33,ESE,112,4.0,5.8,27,84.64,,---,0.00,VWS V14.00,2013-01-11 16:53:00,
2013-01-11 11:54:00,48.6,16.1,30.33,ESE,112,7.8,7.8,27,84.64,,---,0.00,VWS V14.00,2013-01-11 16:54:00,
2013-01-11 11:56:00,48.6,16.1,30.33,SE,135,4.7,4.9,27,84.64,,---,0.00,VWS V14.00,2013-01-11 16:56:00,
2013-01-11 11:59:00,48.7,16.3,30.33,SE,135,4.0,5.6,27,84.64,,---,0.00,VWS V14.00,2013-01-11 16:59:00,
2013-01-11 12:01:00,48.7,16.3,30.33,SE,135,3.1,5.6,27,84.64,,---,0.00,VWS V14.00,2013-01-11 17:01:00,
2013-01-11 12:02:00,48.7,16.3,30.33,ENE,68,4.7,4.7,27,84.64,,---,0.00,VWS V14.00,2013-01-11 17:02:00,
2013-01-11 12:05:00,48.7,16.3,30.33,SE,135,3.8,5.6,27,84.64,,---,0.00,VWS V14.00,2013-01-11 17:05:00,
2013-01-11 12:06:00,48.7,16.3,30.33,ESE,112,3.1,5.8,27,84.64,,---,0.00,VWS V14.00,2013-01-11 17:06:00,
2013-01-11 12:09:00,48.7,16.3,30.33,East,90,3.4,5.4,27,84.64,,---,0.00,VWS V14.00,2013-01-11 17:09:00,
2013-01-11 12:11:00,48.7,16.3,30.33,ESE,112,6.3,6.3,27,84.64,,---,0.00,VWS V14.00,2013-01-11 17:11:00,
2013-01-11 12:12:00,48.7,16.3,30.33,SE,135,4.0,6.3,27,84.64,,---,0.00,VWS V14.00,2013-01-11 17:12:00,
2013-01-11 12:14:00,48.7,16.3,30.33,ESE,112,5.6,5.6,27,84.64,,---,0.00,VWS V14.00,2013-01-11 17:14:00,
2013-01-11 12:16:00,48.6,16.1,30.33,ESE,112,4.9,4.9,27,84.64,,---,0.00,VWS V14.00,2013-01-11 17:16:00,
2013-01-11 12:19:00,48.6,16.1,30.33,SE,135,6.0,6.0,27,84.64,,---,0.00,VWS V14.00,2013-01-11 17:19:00,
2013-01-11 12:21:00,48.6,16.1,30.33,SSE,158,1.3,4.9,27,84.64,,---,0.00,VWS V14.00,2013-01-11 17:21:00,
2013-01-11 12:23:00,48.6,16.1,30.33,ESE,112,2.0,3.4,27,84.64,,---,0.00,VWS V14.00,2013-01-11 17:23:00,
2013-01-11 12:24:00,48.6,16.1,30.33,ESE,112,1.6,2.0,27,84.64,,---,0.00,VWS V14.00,2013-01-11 17:24:00,
2013-01-11 12:26:00,48.6,16.1,30.33,SE,135,2.7,2.9,27,84.64,,---,0.00,VWS V14.00,2013-01-11 17:26:00,
2013-01-11 12:28:00,48.6,16.1,30.33,ESE,112,6.0,6.0,27,84.64,,---,0.00,VWS V14.00,2013-01-11 17:28:00,
2013-01-11 12:31:00,48.4,16.0,30.33,SE,135,6.3,6.3,27,84.64,,---,0.00,VWS V14.00,2013-01-11 17:31:00,
2013-01-11 12:33:00,48.2,15.8,30.33,SSE,158,4.0,4.9,27,84.64,,---,0.00,VWS V14.00,2013-01-11 17:33:00,
2013-01-11 12:35:00,48.2,15.8,30.33,ESE,112,6.0,6.0,27,84.64,,---,0.00,VWS V14.00,2013-01-11 17:35:00,
2013-01-11 12:36:00,48.2,15.8,30.30,ESE,112,3.4,6.0,27,84.64,,---,0.00,VWS V14.00,2013-01-11 17:36:00,
2013-01-11 12:37:00,48.2,15.8,30.30,SE,135,5.4,5.4,27,84.64,,---,0.00,VWS V14.00,2013-01-11 17:37:00,
2013-01-11 12:38:00,48.0,15.6,30.30,ESE,112,6.0,6.3,27,84.64,,---,0.00,VWS V14.00,2013-01-11 17:38:00,
2013-01-11 12:42:00,47.8,15.5,30.30,SSE,158,2.9,3.6,27,84.64,,---,0.00,VWS V14.00,2013-01-11 17:42:00,
2013-01-11 12:43:00,47.8,16.3,30.30,SSE,158,4.0,4.3,28,84.64,,---,0.00,VWS V14.00,2013-01-11 17:43:00,
2013-01-11 12:44:00,47.8,16.3,30.30,SE,135,3.1,4.0,28,84.64,,---,0.00,VWS V14.00,2013-01-11 17:44:00,
2013-01-11 12:47:00,47.8,16.3,30.30,SE,135,0.0,1.1,28,84.64,,---,0.00,VWS V14.00,2013-01-11 17:47:00,
2013-01-11 12:50:00,47.8,16.3,30.30,SSE,158,3.1,3.6,28,84.64,,---,0.00,VWS V14.00,2013-01-11 17:50:00,
2013-01-11 12:51:00,47.8,16.3,30.30,ESE,112,2.2,3.6,28,84.64,,---,0.00,VWS V14.00,2013-01-11 17:51:00,
2013-01-11 12:52:00,47.8,16.3,30.30,ESE,112,2.7,2.7,28,84.64,,---,0.00,VWS V14.00,2013-01-11 17:52:00,
2013-01-11 12:57:00,47.8,16.3,30.30,ESE,112,2.0,2.2,28,84.64,,---,0.00,VWS V14.00,2013-01-11 17:57:00,
2013-01-11 12:58:00,47.8,16.3,30.30,SSE,158,1.1,3.8,28,84.64,,---,0.00,VWS V14.00,2013-01-11 17:58:00,
2013-01-11 13:00:00,47.8,16.3,30.30,East,90,2.7,2.7,28,84.64,,---,0.00,VWS V14.00,2013-01-11 18:00:00,
2013-01-11 13:01:00,47.8,16.3,30.30,East,90,0.0,2.7,28,84.64,,---,0.00,VWS V14.00,2013-01-11 18:01:00,
2013-01-11 13:04:00,47.8,16.3,30.30,NNE,22,0.0,1.1,28,84.64,,---,0.00,VWS V14.00,2013-01-11 18:04:00,
2013-01-11 13:05:00,47.8,16.3,30.30,ENE,68,0.0,0.0,28,84.64,,---,0.00,VWS V14.00,2013-01-11 18:05:00,
2013-01-11 13:08:00,47.8,16.3,30.30,East,90,0.0,0.9,28,84.64,,---,0.00,VWS V14.00,2013-01-11 18:08:00,
2013-01-11 13:09:00,48.0,16.5,30.30,East,90,2.0,2.0,28,84.64,,---,0.00,VWS V14.00,2013-01-11 18:09:00,
2013-01-11 13:10:00,48.0,16.5,30.30,ESE,112,1.3,2.5,28,84.64,,---,0.00,VWS V14.00,2013-01-11 18:10:00,
2013-01-11 13:11:00,48.0,16.5,30.30,SE,135,2.9,2.9,28,84.64,,---,0.00,VWS V14.00,2013-01-11 18:11:00,
2013-01-11 13:14:00,48.4,16.8,30.30,SE,135,3.8,4.3,28,84.64,,---,0.00,VWS V14.00,2013-01-11 18:14:00,
2013-01-11 13:16:00,48.4,17.6,30.30,SE,135,3.1,4.0,29,84.64,,---,0.00,VWS V14.00,2013-01-11 18:16:00,
2013-01-11 13:19:00,48.6,17.8,30.30,SE,135,1.3,1.3,29,84.64,,---,0.00,VWS V14.00,2013-01-11 18:19:00,
2013-01-11 13:20:00,48.7,17.9,30.30,SE,135,1.6,1.6,29,84.64,,---,0.00,VWS V14.00,2013-01-11 18:20:00,
2013-01-11 13:22:00,48.7,17.9,30.30,SE,135,0.0,0.0,29,84.64,,---,0.00,VWS V14.00,2013-01-11 18:22:00,
2013-01-11 13:24:00,49.1,18.2,30.30,SE,135,0.0,0.0,29,84.64,,---,0.00,VWS V14.00,2013-01-11 18:24:00,
2013-01-11 13:26:00,48.9,18.1,30.30,ENE,68,0.0,4.0,29,84.64,,---,0.00,VWS V14.00,2013-01-11 18:26:00,
2013-01-11 13:28:00,49.1,18.2,30.30,East,90,3.6,3.6,29,84.64,,---,0.00,VWS V14.00,2013-01-11 18:28:00,
2013-01-11 13:30:00,49.1,18.2,30.30,ENE,68,2.7,3.1,29,84.64,,---,0.00,VWS V14.00,2013-01-11 18:30:00,
2013-01-11 13:33:00,49.1,18.2,30.30,East,90,2.2,2.5,29,84.64,,---,0.00,VWS V14.00,2013-01-11 18:33:00,
2013-01-11 13:35:00,49.3,18.4,30.30,ESE,112,2.7,2.7,29,84.64,,---,0.00,VWS V14.00,2013-01-11 18:35:00,
2013-01-11 13:36:00,49.3,18.4,30.30,ESE,112,1.6,2.7,29,84.64,,---,0.00,VWS V14.00,2013-01-11 18:36:00,
2013-01-11 13:37:00,49.3,18.4,30.30,ESE,112,1.1,1.6,29,84.64,,---,0.00,VWS V14.00,2013-01-11 18:37:00,
2013-01-11 13:41:00,49.3,18.4,30.30,SE,135,5.4,5.4,29,84.64,,---,0.00,VWS V14.00,2013-01-11 18:41:00,
2013-01-11 13:43:00,49.1,18.2,30.30,SE,135,5.4,5.4,29,84.64,,---,0.00,VWS V14.00,2013-01-11 18:43:00,
2013-01-11 13:47:00,49.3,18.4,30.30,ESE,112,0.0,0.0,29,84.64,,---,0.00,VWS V14.00,2013-01-11 18:47:00,
2013-01-11 13:48:00,49.3,18.4,30.30,ESE,112,0.0,0.0,29,84.64,,---,0.00,VWS V14.00,2013-01-11 18:48:00,
2013-01-11 13:50:00,49.3,18.4,30.30,ESE,112,2.7,2.7,29,84.64,,---,0.00,VWS V14.00,2013-01-11 18:50:00,
2013-01-11 13:53:00,49.1,18.2,30.30,SE,135,0.0,0.0,29,84.64,,---,0.00,VWS V14.00,2013-01-11 18:53:00,
2013-01-11 13:54:00,49.1,18.2,30.30,ESE,112,0.0,0.0,29,84.64,,---,0.00,VWS V14.00,2013-01-11 18:54:00,
2013-01-11 13:56:00,49.1,18.2,30.30,ESE,112,6.3,6.3,29,84.64,,---,0.00,VWS V14.00,2013-01-11 18:56:00,
2013-01-11 13:59:00,48.9,18.1,30.30,SSE,158,3.4,3.4,29,84.64,,---,0.00,VWS V14.00,2013-01-11 18:59:00,
2013-01-11 14:02:00,48.9,18.1,30.30,SSE,158,2.0,2.0,29,84.64,,---,0.00,VWS V14.00,2013-01-11 19:02:00,
2013-01-11 14:04:00,48.9,18.1,30.30,SE,135,3.6,3.6,29,84.64,,---,0.00,VWS V14.00,2013-01-11 19:04:00,
2013-01-11 14:05:00,48.9,18.1,30.30,SE,135,2.7,4.3,29,84.64,,---,0.00,VWS V14.00,2013-01-11 19:05:00,
2013-01-11 14:09:00,48.7,17.9,30.27,SSE,158,4.0,4.9,29,84.64,,---,0.00,VWS V14.00,2013-01-11 19:09:00,
2013-01-11 14:12:00,48.7,17.9,30.27,SE,135,2.7,2.7,29,84.64,,---,0.00,VWS V14.00,2013-01-11 19:12:00,
2013-01-11 14:14:00,48.7,17.9,30.27,SE,135,0.9,1.3,29,84.64,,---,0.00,VWS V14.00,2013-01-11 19:14:00,
2013-01-11 14:17:00,48.9,18.1,30.27,SSE,158,2.2,2.9,29,84.64,,---,0.00,VWS V14.00,2013-01-11 19:17:00,
2013-01-11 14:19:00,48.9,18.9,30.27,SSE,158,0.0,1.1,30,84.64,,---,0.00,VWS V14.00,2013-01-11 19:19:00,
2013-01-11 14:23:00,48.9,18.9,30.30,SSE,158,1.1,3.8,30,84.64,,---,0.00,VWS V14.00,2013-01-11 19:23:00,
2013-01-11 14:25:00,48.9,18.9,30.30,ESE,112,3.8,4.3,30,84.64,,---,0.00,VWS V14.00,2013-01-11 19:25:00,
2013-01-11 14:26:00,48.9,18.9,30.30,ESE,112,2.9,3.8,30,84.64,,---,0.00,VWS V14.00,2013-01-11 19:26:00,
2013-01-11 14:30:00,48.9,18.9,30.30,SE,135,3.6,3.6,30,84.64,,---,0.00,VWS V14.00,2013-01-11 19:30:00,
2013-01-11 14:31:00,48.9,18.9,30.30,SE,135,0.0,3.6,30,84.64,,---,0.00,VWS V14.00,2013-01-11 19:31:00,
2013-01-11 14:35:00,48.9,18.9,30.30,ESE,112,4.0,4.0,30,84.64,,---,0.00,VWS V14.00,2013-01-11 19:35:00,
2013-01-11 14:36:00,48.7,18.7,30.27,SSE,158,3.6,4.3,30,84.64,,---,0.00,VWS V14.00,2013-01-11 19:36:00,
2013-01-11 14:39:00,48.9,18.9,30.27,SSE,158,4.0,4.0,30,84.64,,---,0.00,VWS V14.00,2013-01-11 19:39:00,
2013-01-11 14:43:00,48.7,19.5,30.27,ESE,112,4.9,5.8,31,84.64,,---,0.00,VWS V14.00,2013-01-11 19:43:00,
2013-01-11 14:44:00,48.7,19.5,30.27,SE,135,5.6,5.6,31,84.64,,---,0.00,VWS V14.00,2013-01-11 19:44:00,
2013-01-11 14:49:00,48.6,19.3,30.27,ESE,112,1.3,6.3,31,84.64,,---,0.00,VWS V14.00,2013-01-11 19:49:00,
2013-01-11 14:51:00,48.6,19.3,30.24,ESE,112,2.9,3.4,31,84.64,,---,0.00,VWS V14.00,2013-01-11 19:51:00,
2013-01-11 14:54:00,48.6,20.1,30.24,SE,135,3.4,6.3,32,84.64,,---,0.00,VWS V14.00,2013-01-11 19:54:00,
2013-01-11 14:59:00,48.7,20.2,30.24,SE,135,6.0,6.0,32,84.64,,---,0.00,VWS V14.00,2013-01-11 19:59:00,
2013-01-11 15:00:00,48.7,20.2,30.24,SSE,158,4.5,6.3,32,84.64,,---,0.00,VWS V14.00,2013-01-11 20:00:00,
2013-01-11 15:01:00,48.7,20.9,30.24,SSE,158,4.0,4.7,33,84.64,,---,0.00,VWS V14.00,2013-01-11 20:01:00,
2013-01-11 15:02:00,48.7,20.9,30.24,SSE,158,5.6,5.6,33,84.64,,---,0.00,VWS V14.00,2013-01-11 20:02:00,
2013-01-11 15:06:00,48.7,20.9,30.27,ESE,112,3.1,6.3,33,84.64,,---,0.00,VWS V14.00,2013-01-11 20:06:00,
2013-01-11 15:07:00,48.9,21.1,30.27,SE,135,3.1,4.3,33,84.64,,---,0.00,VWS V14.00,2013-01-11 20:07:00,
2013-01-11 15:11:00,48.7,21.6,30.27,SE,135,3.6,7.6,34,84.64,,---,0.00,VWS V14.00,2013-01-11 20:11:00,
2013-01-11 15:12:00,48.9,21.8,30.27,SE,135,4.9,4.9,34,84.64,,---,0.00,VWS V14.00,2013-01-11 20:12:00,
2013-01-11 15:15:00,48.9,21.8,30.27,SSE,158,7.8,8.1,34,84.64,,---,0.00,VWS V14.00,2013-01-11 20:15:00,
2013-01-11 15:16:00,48.9,21.8,30.27,SE,135,5.6,7.8,34,84.64,,---,0.00,VWS V14.00,2013-01-11 20:16:00,
2013-01-11 15:18:00,48.9,21.8,30.27,SE,135,4.7,5.8,34,84.64,,---,0.00,VWS V14.00,2013-01-11 20:18:00,
2013-01-11 15:22:00,48.9,21.8,30.27,SSE,158,5.8,5.8,34,84.64,,---,0.00,VWS V14.00,2013-01-11 20:22:00,
2013-01-11 15:23:00,48.9,21.8,30.27,South,180,3.6,5.8,34,84.64,,---,0.00,VWS V14.00,2013-01-11 20:23:00,
2013-01-11 15:27:00,48.9,21.8,30.27,SSE,158,3.4,5.4,34,84.64,,---,0.00,VWS V14.00,2013-01-11 20:27:00,
2013-01-11 15:28:00,48.9,21.8,30.27,SSE,158,4.7,4.7,34,84.64,,---,0.00,VWS V14.00,2013-01-11 20:28:00,
2013-01-11 15:32:00,48.9,21.8,30.27,SSE,158,4.0,5.6,34,84.64,,---,0.00,VWS V14.00,2013-01-11 20:32:00,
2013-01-11 15:33:00,49.1,22.6,30.27,SE,135,4.0,4.3,35,84.64,,---,0.00,VWS V14.00,2013-01-11 20:33:00,
2013-01-11 15:34:00,49.1,22.6,30.27,SSE,158,4.9,6.0,35,84.64,,---,0.00,VWS V14.00,2013-01-11 20:34:00,
2013-01-11 15:38:00,49.1,22.6,30.27,SE,135,2.7,4.9,35,84.64,,---,0.00,VWS V14.00,2013-01-11 20:38:00,
2013-01-11 15:39:00,49.1,22.6,30.27,SSE,158,3.8,4.0,35,84.64,,---,0.00,VWS V14.00,2013-01-11 20:39:00,
2013-01-11 15:44:00,49.3,22.8,30.27,SSE,158,4.3,4.3,35,84.64,,---,0.00,VWS V14.00,2013-01-11 20:44:00,
2013-01-11 15:45:00,49.3,22.8,30.27,SE,135,2.9,4.3,35,84.64,,---,0.00,VWS V14.00,2013-01-11 20:45:00,
2013-01-11 15:47:00,49.1,22.6,30.27,SSE,158,4.9,4.9,35,84.64,,---,0.00,VWS V14.00,2013-01-11 20:47:00,
2013-01-11 15:50:00,49.1,22.6,30.27,SSE,158,5.4,5.8,35,84.64,,---,0.00,VWS V14.00,2013-01-11 20:50:00,
2013-01-11 15:53:00,49.1,22.6,30.24,SSE,158,3.8,6.0,35,84.64,,---,0.00,VWS V14.00,2013-01-11 20:53:00,
2013-01-11 15:54:00,49.1,22.6,30.24,South,180,2.9,5.4,35,84.64,,---,0.00,VWS V14.00,2013-01-11 20:54:00,
2013-01-11 15:56:00,49.3,22.8,30.24,SE,135,5.4,5.4,35,84.64,,---,0.00,VWS V14.00,2013-01-11 20:56:00,
2013-01-11 15:58:00,49.3,22.8,30.24,SSE,158,5.8,5.8,35,84.64,,---,0.00,VWS V14.00,2013-01-11 20:58:00,
2013-01-11 15:59:00,49.3,22.8,30.24,SSE,158,4.0,5.8,35,84.64,,---,0.00,VWS V14.00,2013-01-11 20:59:00,
2013-01-11 16:01:00,49.3,23.5,30.24,SSE,158,2.5,6.0,36,84.64,,---,0.00,VWS V14.00,2013-01-11 21:01:00,
2013-01-11 16:06:00,49.3,23.5,30.24,SSE,158,3.1,4.3,36,84.64,,---,0.00,VWS V14.00,2013-01-11 21:06:00,
2013-01-11 16:07:00,49.1,23.3,30.24,SE,135,2.5,4.9,36,84.64,,---,0.00,VWS V14.00,2013-01-11 21:07:00,
2013-01-11 16:08:00,49.1,23.3,30.24,SE,135,4.9,4.9,36,84.64,,---,0.00,VWS V14.00,2013-01-11 21:08:00,
2013-01-11 16:13:00,49.1,24.0,30.24,ESE,112,3.8,4.9,37,84.64,,---,0.00,VWS V14.00,2013-01-11 21:13:00,
2013-01-11 16:14:00,49.1,24.0,30.24,SE,135,7.4,7.4,37,84.64,,---,0.00,VWS V14.00,2013-01-11 21:14:00,
2013-01-11 16:18:00,49.1,24.0,30.24,South,180,5.6,5.6,37,84.64,,---,0.00,VWS V14.00,2013-01-11 21:18:00,
2013-01-11 16:19:00,49.3,24.1,30.24,SSE,158,2.9,5.6,37,84.64,,---,0.00,VWS V14.00,2013-01-11 21:19:00,
2013-01-11 16:21:00,49.3,24.1,30.24,South,180,4.3,4.3,37,84.64,,---,0.00,VWS V14.00,2013-01-11 21:21:00,
2013-01-11 16:24:00,49.5,24.3,30.24,SSE,158,5.6,5.6,37,84.64,,---,0.00,VWS V14.00,2013-01-11 21:24:00,
2013-01-11 16:28:00,49.5,24.3,30.24,SE,135,2.5,3.6,37,84.64,,---,0.00,VWS V14.00,2013-01-11 21:28:00,
2013-01-11 16:30:00,49.5,24.3,30.24,SSE,158,2.5,3.6,37,84.64,,---,0.00,VWS V14.00,2013-01-11 21:30:00,
2013-01-11 16:34:00,49.6,24.5,30.24,SSE,158,3.4,4.0,37,84.64,,---,0.00,VWS V14.00,2013-01-11 21:34:00,
2013-01-11 16:35:00,49.6,24.5,30.24,ESE,112,3.6,3.6,37,84.64,,---,0.00,VWS V14.00,2013-01-11 21:35:00,
2013-01-11 16:37:00,49.6,24.5,30.24,SSE,158,3.8,3.8,37,84.64,,---,0.00,VWS V14.00,2013-01-11 21:37:00,
2013-01-11 16:42:00,49.5,24.3,30.24,SE,135,2.7,2.9,37,84.64,,---,0.00,VWS V14.00,2013-01-11 21:42:00,
2013-01-11 16:46:00,49.5,24.3,30.24,SE,135,2.2,2.9,37,84.64,,---,0.00,VWS V14.00,2013-01-11 21:46:00,
2013-01-11 16:47:00,49.5,24.3,30.24,SE,135,0.0,2.2,37,84.64,,---,0.00,VWS V14.00,2013-01-11 21:47:00,
2013-01-11 16:48:00,49.5,24.3,30.24,SE,135,1.6,2.2,37,84.64,,---,0.00,VWS V14.00,2013-01-11 21:48:00,
2013-01-11 16:52:00,49.5,24.3,30.21,SSE,158,0.0,3.6,37,84.64,,---,0.00,VWS V14.00,2013-01-11 21:52:00,
2013-01-11 16:53:00,49.5,24.3,30.21,SSE,158,1.1,1.3,37,84.64,,---,0.00,VWS V14.00,2013-01-11 21:53:00,
2013-01-11 16:58:00,49.5,24.3,30.21,SSE,158,2.9,3.4,37,84.64,,---,0.00,VWS V14.00,2013-01-11 21:58:00,
2013-01-11 16:59:00,49.5,24.3,30.21,SSE,158,2.0,3.1,37,84.64,,---,0.00,VWS V14.00,2013-01-11 21:59:00,
2013-01-11 17:00:00,49.5,24.3,30.21,SSE,158,3.4,3.4,37,84.64,,---,0.00,VWS V14.00,2013-01-11 22:00:00,
2013-01-11 17:05:00,49.5,24.3,30.21,SSE,158,4.3,4.3,37,84.64,,---,0.00,VWS V14.00,2013-01-11 22:05:00,
2013-01-11 17:06:00,49.5,24.3,30.21,SSE,158,2.5,4.3,37,84.64,,---,0.00,VWS V14.00,2013-01-11 22:06:00,
2013-01-11 17:07:00,49.3,24.1,30.21,SSE,158,2.9,2.9,37,84.64,,---,0.00,VWS V14.00,2013-01-11 22:07:00,
2013-01-11 17:10:00,49.3,24.1,30.21,SE,135,0.0,1.3,37,84.64,,---,0.00,VWS V14.00,2013-01-11 22:10:00,
2013-01-11 17:12:00,49.3,24.1,30.21,SE,135,3.4,3.4,37,84.64,,---,0.00,VWS V14.00,2013-01-11 22:12:00,
2013-01-11 17:15:00,49.3,24.1,30.21,ESE,112,3.1,3.8,37,84.64,,---,0.00,VWS V14.00,2013-01-11 22:15:00,
2013-01-11 17:18:00,49.3,24.1,30.21,ESE,112,4.3,4.3,37,84.64,,---,0.00,VWS V14.00,2013-01-11 22:18:00,
2013-01-11 17:20:00,49.3,24.1,30.21,ESE,112,3.1,3.1,37,84.64,,---,0.00,VWS V14.00,2013-01-11 22:20:00,
2013-01-11 17:25:00,49.3,24.1,30.21,ESE,112,3.8,3.8,37,84.64,,---,0.00,VWS V14.00,2013-01-11 22:25:00,
2013-01-11 17:29:00,49.3,24.1,30.21,SSE,158,2.5,2.5,37,84.64,,---,0.00,VWS V14.00,2013-01-11 22:29:00,
2013-01-11 17:30:00,49.3,24.1,30.21,SE,135,0.0,2.5,37,84.64,,---,0.00,VWS V14.00,2013-01-11 22:30:00,
2013-01-11 17:32:00,49.3,24.1,30.21,SE,135,0.0,0.0,37,84.64,,---,0.00,VWS V14.00,2013-01-11 22:32:00,
2013-01-11 17:35:00,49.3,24.1,30.21,SE,135,3.1,3.1,37,84.64,,---,0.00,VWS V14.00,2013-01-11 22:35:00,
2013-01-11 17:36:00,49.3,24.1,30.21,SSE,158,2.7,4.0,37,84.64,,---,0.00,VWS V14.00,2013-01-11 22:36:00,
2013-01-11 17:41:00,49.1,24.0,30.21,SSE,158,2.7,2.7,37,84.64,,---,0.00,VWS V14.00,2013-01-11 22:41:00,
2013-01-11 17:46:00,49.1,24.0,30.21,SE,135,2.5,2.9,37,84.64,,---,0.00,VWS V14.00,2013-01-11 22:46:00,
2013-01-11 17:47:00,49.1,24.0,30.21,ESE,112,2.9,2.9,37,84.64,,---,0.00,VWS V14.00,2013-01-11 22:47:00,
2013-01-11 17:48:00,49.1,24.0,30.21,ESE,112,3.1,3.1,37,84.64,,---,0.00,VWS V14.00,2013-01-11 22:48:00,
2013-01-11 17:53:00,49.1,24.0,30.21,ESE,112,2.0,2.0,37,84.64,,---,0.00,VWS V14.00,2013-01-11 22:53:00,
2013-01-11 17:58:00,49.1,24.0,30.21,ESE,112,4.0,4.0,37,84.64,,---,0.00,VWS V14.00,2013-01-11 22:58:00,
2013-01-11 17:59:00,126.3,99.9,30.21,ESE,112,4.0,4.0,100,84.64,,---,0.00,VWS V14.00,2013-01-11 22:59:00,
2013-01-11 18:00:00,126.3,99.9,30.21,ESE,112,4.0,4.0,100,84.64,,---,0.00,VWS V14.00,2013-01-11 23:00:00,
2013-01-11 18:01:00,49.1,24.0,30.21,ESE,112,1.6,4.0,37,84.64,,---,0.00,VWS V14.00,2013-01-11 23:01:00,
2013-01-11 18:05:00,49.1,24.0,30.21,SE,135,4.0,4.0,37,84.64,,---,0.00,VWS V14.00,2013-01-11 23:05:00,
2013-01-11 18:10:00,49.1,24.0,30.21,SE,135,2.7,2.7,37,84.64,,---,0.00,VWS V14.00,2013-01-11 23:10:00,
2013-01-11 18:11:00,49.1,24.0,30.21,SE,135,2.7,2.7,37,84.64,,---,0.00,VWS V14.00,2013-01-11 23:11:00,
2013-01-11 18:15:00,49.1,24.6,30.21,SE,135,6.0,6.0,38,84.64,,---,0.00,VWS V14.00,2013-01-11 23:15:00,
2013-01-11 18:16:00,49.1,24.6,30.21,SSE,158,3.6,6.0,38,84.64,,---,0.00,VWS V14.00,2013-01-11 23:16:00,
2013-01-11 18:17:00,49.1,24.6,30.21,ESE,112,5.4,5.6,38,84.64,,---,0.00,VWS V14.00,2013-01-11 23:17:00,
2013-01-11 18:22:00,49.3,24.8,30.18,SSE,158,4.9,4.9,38,84.64,,---,0.00,VWS V14.00,2013-01-11 23:22:00,
2013-01-11 18:23:00,49.3,24.8,30.18,SSE,158,5.6,5.6,38,84.64,,---,0.00,VWS V14.00,2013-01-11 23:23:00,
2013-01-11 18:24:00,49.3,24.8,30.18,SE,135,3.4,5.6,38,84.64,,---,0.00,VWS V14.00,2013-01-11 23:24:00,
2013-01-11 18:28:00,49.5,24.9,30.18,SE,135,3.1,5.6,38,84.64,,---,0.00,VWS V14.00,2013-01-11 23:28:00,
2013-01-11 18:29:00,49.5,24.9,30.18,SE,135,3.8,6.5,38,84.64,,---,0.00,VWS V14.00,2013-01-11 23:29:00,
2013-01-11 18:32:00,49.5,24.9,30.18,ESE,112,4.9,7.2,38,84.64,,---,0.00,VWS V14.00,2013-01-11 23:32:00,
2013-01-11 18:35:00,49.6,25.1,30.18,SE,135,7.4,7.4,38,84.64,,---,0.00,VWS V14.00,2013-01-11 23:35:00,
2013-01-11 18:40:00,49.8,25.9,30.18,ESE,112,7.4,7.4,39,84.64,,---,0.00,VWS V14.00,2013-01-11 23:40:00,
2013-01-11 18:45:00,50.0,25.4,30.18,ESE,112,9.8,9.8,38,84.64,,---,0.00,VWS V14.00,2013-01-11 23:45:00,
2013-01-11 18:46:00,50.0,25.4,30.18,SSE,158,5.4,9.8,38,84.64,,---,0.00,VWS V14.00,2013-01-11 23:46:00,
2013-01-11 18:50:00,50.0,26.0,30.18,SE,135,4.9,11.0,39,84.64,,---,0.00,VWS V14.00,2013-01-11 23:50:00,
2013-01-11 18:51:00,50.0,25.4,30.15,ESE,112,6.0,6.0,38,84.64,,---,0.00,VWS V14.00,2013-01-11 23:51:00,
2013-01-11 18:53:00,50.0,26.0,30.15,SE,135,6.5,9.8,39,84.64,,---,0.00,VWS V14.00,2013-01-11 23:53:00,
2013-01-11 18:56:00,50.0,26.0,30.15,SE,135,5.4,5.4,39,84.64,,---,0.00,VWS V14.00,2013-01-11 23:56:00,
2013-01-11 19:01:00,50.2,26.2,30.15,SE,135,6.3,6.3,39,84.64,,---,0.00,VWS V14.00,2013-01-12 00:01:00,
2013-01-11 19:02:00,50.0,26.0,30.15,SE,135,6.3,6.3,39,84.64,,---,0.00,VWS V14.00,2013-01-12 00:02:00,
2013-01-11 19:04:00,50.0,26.0,30.15,SE,135,4.3,6.3,39,84.64,,---,0.00,VWS V14.00,2013-01-12 00:04:00,
2013-01-11 19:09:00,50.2,26.2,30.15,ESE,112,5.4,8.1,39,84.64,,---,0.00,VWS V14.00,2013-01-12 00:09:00,
2013-01-11 19:10:00,50.2,26.2,30.15,SSE,158,4.7,5.4,39,84.64,,---,0.00,VWS V14.00,2013-01-12 00:10:00,
2013-01-11 19:15:00,50.0,26.0,30.15,SE,135,5.6,7.6,39,84.64,,---,0.00,VWS V14.00,2013-01-12 00:15:00,
2013-01-11 19:17:00,50.2,26.2,30.15,SE,135,5.4,6.0,39,84.64,,---,0.00,VWS V14.00,2013-01-12 00:17:00,
2013-01-11 19:18:00,50.2,26.2,30.15,ESE,112,8.7,8.7,39,84.64,,---,0.00,VWS V14.00,2013-01-12 00:18:00,
2013-01-11 19:22:00,50.2,26.2,30.15,ESE,112,6.9,6.9,39,84.64,,---,0.00,VWS V14.00,2013-01-12 00:22:00,
2013-01-11 19:23:00,50.2,26.2,30.15,ESE,112,6.5,7.6,39,84.64,,---,0.00,VWS V14.00,2013-01-12 00:23:00,
2013-01-11 19:24:00,50.0,26.0,30.15,ESE,112,6.5,6.5,39,84.64,,---,0.00,VWS V14.00,2013-01-12 00:24:00,
2013-01-11 19:29:00,50.0,26.0,30.15,SSE,158,8.5,8.5,39,84.64,,---,0.00,VWS V14.00,2013-01-12 00:29:00,
2013-01-11 19:30:00,50.0,26.0,30.15,SE,135,8.1,10.1,39,84.64,,---,0.00,VWS V14.00,2013-01-12 00:30:00,
2013-01-11 19:31:00,50.0,26.0,30.15,SSE,158,6.0,8.1,39,84.64,,---,0.00,VWS V14.00,2013-01-12 00:31:00,
2013-01-11 19:32:00,50.0,26.0,30.15,ESE,112,8.1,8.1,39,84.64,,---,0.00,VWS V14.00,2013-01-12 00:32:00,
2013-01-11 19:36:00,50.0,26.0,30.15,SSE,158,12.5,12.5,39,84.64,,---,0.00,VWS V14.00,2013-01-12 00:36:00,
2013-01-11 19:39:00,50.0,26.0,30.15,ESE,112,4.3,7.6,39,84.64,,---,0.00,VWS V14.00,2013-01-12 00:39:00,
2013-01-11 19:41:00,50.0,26.0,30.15,SSE,158,8.1,8.1,39,84.64,,---,0.00,VWS V14.00,2013-01-12 00:41:00,
2013-01-11 19:46:00,50.2,26.2,30.15,ESE,112,4.3,4.3,39,84.64,,---,0.00,VWS V14.00,2013-01-12 00:46:00,
2013-01-11 19:51:00,50.2,26.2,30.12,SSW,202,6.0,7.4,39,84.64,,---,0.00,VWS V14.00,2013-01-12 00:51:00,
2013-01-11 19:53:00,50.2,26.2,30.12,SSE,158,7.4,8.5,39,84.64,,---,0.00,VWS V14.00,2013-01-12 00:53:00,
2013-01-11 19:58:00,50.2,26.2,30.12,SSE,158,6.0,6.0,39,84.64,,---,0.00,VWS V14.00,2013-01-12 00:58:00,
2013-01-11 20:03:00,50.0,26.0,30.12,ESE,112,3.4,9.0,39,84.64,,---,0.00,VWS V14.00,2013-01-12 01:03:00,
2013-01-11 20:06:00,50.2,26.2,30.09,SSE,158,5.8,7.4,39,84.64,,---,0.00,VWS V14.00,2013-01-12 01:06:00,
2013-01-11 20:07:00,50.2,26.2,30.09,SSE,158,4.7,7.4,39,84.64,,---,0.00,VWS V14.00,2013-01-12 01:07:00,
2013-01-11 20:08:00,50.2,26.2,30.09,SSE,158,4.3,5.6,39,84.64,,---,0.00,VWS V14.00,2013-01-12 01:08:00,
2013-01-11 20:13:00,50.2,26.2,30.09,SE,135,6.5,7.4,39,84.64,,---,0.00,VWS V14.00,2013-01-12 01:13:00,
2013-01-11 20:18:00,50.4,26.4,30.09,SSE,158,3.1,9.8,39,84.64,,---,0.00,VWS V14.00,2013-01-12 01:18:00,
2013-01-11 20:19:00,50.4,26.4,30.09,SE,135,7.8,7.8,39,84.64,,---,0.00,VWS V14.00,2013-01-12 01:19:00,
2013-01-11 20:24:00,50.7,27.3,30.09,SE,135,7.4,7.4,40,84.64,,---,0.00,VWS V14.00,2013-01-12 01:24:00,
2013-01-11 20:25:00,50.5,27.1,30.09,SE,135,3.1,7.4,40,84.64,,---,0.00,VWS V14.00,2013-01-12 01:25:00,
2013-01-11 20:30:00,50.7,27.3,30.09,SE,135,2.0,4.0,40,84.64,,---,0.00,VWS V14.00,2013-01-12 01:30:00,
2013-01-11 20:35:00,50.7,26.7,30.09,NW,315,1.1,1.6,39,84.64,,---,0.00,VWS V14.00,2013-01-12 01:35:00,
2013-01-11 20:36:00,50.7,26.7,30.15,NNW,338,2.5,2.5,39,84.64,,---,0.00,VWS V14.00,2013-01-12 01:36:00,
2013-01-11 20:41:00,50.7,26.7,30.15,NNW,338,3.6,3.6,39,84.64,,---,0.00,VWS V14.00,2013-01-12 01:41:00,
2013-01-11 20:43:00,50.7,26.7,30.15,NNE,22,3.1,3.1,39,84.64,,---,0.00,VWS V14.00,2013-01-12 01:43:00,
2013-01-11 20:46:00,50.7,26.7,30.15,ENE,68,2.5,2.5,39,84.64,,---,0.00,VWS V14.00,2013-01-12 01:46:00,
2013-01-11 20:51:00,50.7,26.7,30.12,NE,45,4.0,4.0,39,84.64,,---,0.00,VWS V14.00,2013-01-12 01:51:00,
2013-01-11 20:52:00,50.7,26.7,30.12,NE,45,1.1,4.0,39,84.64,,---,0.00,VWS V14.00,2013-01-12 01:52:00,
2013-01-11 20:57:00,50.7,26.7,30.12,NE,45,0.0,0.0,39,84.64,,---,0.00,VWS V14.00,2013-01-12 01:57:00,
2013-01-11 21:02:00,50.9,26.8,30.12,NE,45,0.0,0.9,39,84.64,,---,0.00,VWS V14.00,2013-01-12 02:02:00,
2013-01-11 21:03:00,50.9,26.8,30.12,NE,45,0.0,0.0,39,84.64,,---,0.00,VWS V14.00,2013-01-12 02:03:00,
2013-01-11 21:08:00,51.4,27.9,30.09,East,90,4.3,8.5,40,84.64,,---,0.00,VWS V14.00,2013-01-12 02:08:00,
2013-01-11 21:13:00,51.3,27.8,30.09,NE,45,2.5,3.6,40,84.64,,---,0.00,VWS V14.00,2013-01-12 02:13:00,
2013-01-11 21:14:00,51.3,27.8,30.09,NE,45,1.3,2.9,40,84.64,,---,0.00,VWS V14.00,2013-01-12 02:14:00,
2013-01-11 21:17:00,51.3,27.8,30.09,ENE,68,3.1,3.1,40,84.64,,---,0.00,VWS V14.00,2013-01-12 02:17:00,
2013-01-11 21:18:00,51.4,27.9,30.09,NE,45,2.9,3.1,40,84.64,,---,0.00,VWS V14.00,2013-01-12 02:18:00,
2013-01-11 21:20:00,51.4,27.9,30.09,East,90,4.7,4.7,40,84.64,,---,0.00,VWS V14.00,2013-01-12 02:20:00,
2013-01-11 21:23:00,51.4,27.9,30.09,East,90,8.5,8.5,40,84.64,,---,0.00,VWS V14.00,2013-01-12 02:23:00,
2013-01-11 21:28:00,51.1,27.6,30.09,ESE,112,2.7,3.1,40,84.64,,---,0.00,VWS V14.00,2013-01-12 02:28:00,
2013-01-11 21:29:00,51.1,27.6,30.09,ENE,68,2.9,3.4,40,84.64,,---,0.00,VWS V14.00,2013-01-12 02:29:00,
2013-01-11 21:34:00,50.9,26.8,30.09,ENE,68,0.0,0.0,39,84.64,,---,0.00,VWS V14.00,2013-01-12 02:34:00,
2013-01-11 21:35:00,50.9,26.8,30.09,ENE,68,0.0,0.0,39,84.64,,---,0.00,VWS V14.00,2013-01-12 02:35:00,
2013-01-11 21:39:00,50.9,26.8,30.09,ENE,68,0.0,2.0,39,84.64,,---,0.00,VWS V14.00,2013-01-12 02:39:00,
2013-01-11 21:40:00,50.9,26.8,30.09,ENE,68,2.7,2.7,39,84.64,,---,0.00,VWS V14.00,2013-01-12 02:40:00,
2013-01-11 21:45:00,51.1,27.6,30.09,East,90,2.5,2.9,40,84.64,,---,0.00,VWS V14.00,2013-01-12 02:45:00,
2013-01-11 21:46:00,51.1,27.6,30.09,East,90,2.7,2.7,40,84.64,,---,0.00,VWS V14.00,2013-01-12 02:46:00,
2013-01-11 21:48:00,50.9,27.5,30.09,ESE,112,1.3,3.1,40,84.64,,---,0.00,VWS V14.00,2013-01-12 02:48:00,
2013-01-11 21:50:00,50.9,27.5,30.09,ENE,68,1.3,3.1,40,84.64,,---,0.00,VWS V14.00,2013-01-12 02:50:00,
2013-01-11 21:54:00,50.9,27.5,30.09,ENE,68,2.2,2.7,40,84.64,,---,0.00,VWS V14.00,2013-01-12 02:54:00,
2013-01-11 21:55:00,50.9,27.5,30.09,ENE,68,2.5,2.7,40,84.64,,---,0.00,VWS V14.00,2013-01-12 02:55:00,
2013-01-11 21:57:00,50.9,27.5,30.09,NE,45,3.6,3.6,40,84.64,,---,0.00,VWS V14.00,2013-01-12 02:57:00,
2013-01-11 22:00:00,50.7,26.7,30.09,ENE,68,3.1,4.3,39,84.64,,---,0.00,VWS V14.00,2013-01-12 03:00:00,
2013-01-11 22:01:00,50.7,26.7,30.09,ENE,68,2.9,3.1,39,84.64,,---,0.00,VWS V14.00,2013-01-12 03:01:00,
2013-01-11 22:03:00,50.7,26.7,30.09,NE,45,2.9,3.8,39,84.64,,---,0.00,VWS V14.00,2013-01-12 03:03:00,
2013-01-11 22:05:00,50.5,26.5,30.09,ENE,68,2.9,2.9,39,84.64,,---,0.00,VWS V14.00,2013-01-12 03:05:00,
2013-01-11 22:06:00,50.5,26.5,30.09,ENE,68,2.0,2.9,39,84.64,,---,0.00,VWS V14.00,2013-01-12 03:06:00,
2013-01-11 22:10:00,50.4,26.4,30.09,ENE,68,2.9,3.1,39,84.64,,---,0.00,VWS V14.00,2013-01-12 03:10:00,
2013-01-11 22:15:00,50.4,26.4,30.09,NE,45,2.7,3.6,39,84.64,,---,0.00,VWS V14.00,2013-01-12 03:15:00,
2013-01-11 22:20:00,50.4,26.4,30.09,ENE,68,3.6,3.6,39,84.64,,---,0.00,VWS V14.00,2013-01-12 03:20:00,
2013-01-11 22:25:00,50.4,26.4,30.06,NE,45,2.2,3.1,39,84.64,,---,0.00,VWS V14.00,2013-01-12 03:25:00,
2013-01-11 22:27:00,50.5,26.5,30.06,NE,45,3.1,3.1,39,84.64,,---,0.00,VWS V14.00,2013-01-12 03:27:00,
2013-01-11 22:32:00,50.5,27.1,30.06,NE,45,2.5,6.5,40,84.64,,---,0.00,VWS V14.00,2013-01-12 03:32:00,
2013-01-11 22:37:00,50.7,27.3,30.09,NE,45,3.8,5.8,40,84.64,,---,0.00,VWS V14.00,2013-01-12 03:37:00,
2013-01-11 22:42:00,50.5,27.1,30.09,ENE,68,3.4,5.8,40,84.64,,---,0.00,VWS V14.00,2013-01-12 03:42:00,
2013-01-11 22:47:00,50.4,27.0,30.09,NE,45,3.1,5.6,40,84.64,,---,0.00,VWS V14.00,2013-01-12 03:47:00,
2013-01-11 22:48:00,50.4,27.0,30.09,ENE,68,3.8,3.8,40,84.64,,---,0.00,VWS V14.00,2013-01-12 03:48:00,
2013-01-11 22:52:00,50.4,27.6,30.09,East,90,3.4,3.4,41,84.64,,---,0.00,VWS V14.00,2013-01-12 03:52:00,
2013-01-11 22:53:00,50.4,27.6,30.09,East,90,3.4,4.0,41,84.64,,---,0.00,VWS V14.00,2013-01-12 03:53:00,
2013-01-11 22:58:00,50.2,26.8,30.09,East,90,3.1,3.8,40,84.64,,---,0.00,VWS V14.00,2013-01-12 03:58:00,
2013-01-11 22:59:00,50.2,26.8,30.09,ENE,68,4.7,4.7,40,84.64,,---,0.00,VWS V14.00,2013-01-12 03:59:00,
2013-01-11 23:02:00,50.0,26.6,30.09,East,90,4.9,5.6,40,84.64,,---,0.00,VWS V14.00,2013-01-12 04:02:00,
2013-01-11 23:04:00,50.0,26.6,30.09,ESE,112,7.4,7.4,40,84.64,,---,0.00,VWS V14.00,2013-01-12 04:04:00,
2013-01-11 23:07:00,49.8,27.1,30.06,ENE,68,1.6,3.4,41,84.64,,---,0.00,VWS V14.00,2013-01-12 04:07:00,
2013-01-11 23:08:00,49.8,26.5,30.06,NE,45,4.3,4.3,40,84.64,,---,0.00,VWS V14.00,2013-01-12 04:08:00,
2013-01-11 23:10:00,49.8,26.5,30.06,NE,45,3.4,4.0,40,84.64,,---,0.00,VWS V14.00,2013-01-12 04:10:00,
2013-01-11 23:13:00,49.6,26.3,30.06,NE,45,2.5,4.0,40,84.64,,---,0.00,VWS V14.00,2013-01-12 04:13:00,
2013-01-11 23:15:00,49.6,26.9,30.06,East,90,2.0,3.8,41,84.64,,---,0.00,VWS V14.00,2013-01-12 04:15:00,
2013-01-11 23:20:00,49.6,26.9,30.06,ENE,68,2.5,3.8,41,84.64,,---,0.00,VWS V14.00,2013-01-12 04:20:00,
2013-01-11 23:22:00,49.6,27.5,30.06,ENE,68,2.5,4.3,42,84.64,,---,0.00,VWS V14.00,2013-01-12 04:22:00,
2013-01-11 23:25:00,49.6,28.1,30.06,ENE,68,3.1,3.1,43,84.64,,---,0.00,VWS V14.00,2013-01-12 04:25:00,
2013-01-11 23:28:00,49.8,28.2,30.06,ENE,68,2.7,3.8,43,84.64,,---,0.00,VWS V14.00,2013-01-12 04:28:00,
2013-01-11 23:30:00,49.8,28.2,30.06,ENE,68,5.4,5.4,43,84.64,,---,0.00,VWS V14.00,2013-01-12 04:30:00,
2013-01-11 23:35:00,49.8,28.2,30.06,NE,45,2.5,4.0,43,84.64,,---,0.00,VWS V14.00,2013-01-12 04:35:00,
2013-01-11 23:40:00,49.6,28.1,30.06,ENE,68,3.6,4.0,43,84.64,,---,0.00,VWS V14.00,2013-01-12 04:40:00,
2013-01-11 23:45:00,49.8,28.8,30.06,East,90,0.0,0.9,44,84.64,,---,0.00,VWS V14.00,2013-01-12 04:45:00,
2013-01-11 23:46:00,49.8,28.8,30.06,East,90,2.0,2.0,44,84.64,,---,0.00,VWS V14.00,2013-01-12 04:46:00,
2013-01-11 23:51:00,49.8,28.2,30.03,ENE,68,0.0,2.2,43,84.64,,---,0.00,VWS V14.00,2013-01-12 04:51:00,
2013-01-11 23:53:00,49.6,28.1,30.03,ENE,68,0.9,3.1,43,84.64,,---,0.00,VWS V14.00,2013-01-12 04:53:00,
2013-01-11 23:58:00,49.6,27.5,30.03,ENE,68,0.0,0.0,42,84.64,,---,0.00,VWS V14.00,2013-01-12 04:58:00,